Time,TemperatureF,DewpointF,PressureIn,WindDirection,WindDirectionDegrees,WindSpeedMPH,WindSpeedGustMPH,Humidity,HourlyPrecipIn,Conditions,Clouds,dailyrainin,SoftwareType,DateUTC
2013-01-16 00:00:00,29.8,27.8,30.11,ENE,63,0.0,0.0,92,0.00,,,0.00,Wunderground v.1.15,2013-01-16 05:00:00,
2013-01-16 00:06:00,29.8,27.8,30.12,ENE,63,0.0,0.0,92,0.00,,,0.00,Wunderground v.1.15,2013-01-16 05:06:00,
2013-01-16 00:07:00,29.8,27.8,30.12,ENE,63,2.0,2.0,92,0.00,,,0.00,Wunderground v.1.15,2013-01-16 05:07:00,
2013-01-16 00:08:00,29.8,27.8,30.11,ENE,63,2.0,2.0,92,0.00,,,0.00,Wunderground v.1.15,2013-01-16 05:08:00,
2013-01-16 00:10:00,29.9,27.9,30.11,ENE,63,3.0,3.0,92,0.00,,,0.00,Wunderground v.1.15,2013-01-16 05:10:00,
2013-01-16 00:14:00,29.8,27.8,30.11,ENE,62,0.0,3.0,92,0.00,,,0.00,Wunderground v.1.15,2013-01-16 05:14:00,
2013-01-16 00:16:00,29.9,27.9,30.12,ENE,62,3.0,3.0,92,0.00,,,0.00,Wunderground v.1.15,2013-01-16 05:16:00,
2013-01-16 00:20:00,29.9,27.9,30.13,ENE,62,0.0,1.0,92,0.00,,,0.00,Wunderground v.1.15,2013-01-16 05:20:00,
2013-01-16 00:21:00,29.9,27.9,30.12,ENE,62,0.0,1.0,92,0.00,,,0.00,Wunderground v.1.15,2013-01-16 05:21:00,
2013-01-16 00:22:00,29.9,27.9,30.12,ENE,62,3.0,3.0,92,0.00,,,0.00,Wunderground v.1.15,2013-01-16 05:22:00,
2013-01-16 00:25:00,29.9,27.9,30.12,ENE,58,0.0,3.0,92,0.00,,,0.00,Wunderground v.1.15,2013-01-16 05:25:00,
2013-01-16 00:28:00,29.9,27.9,30.12,ENE,59,0.0,3.0,92,0.00,,,0.00,Wunderground v.1.15,2013-01-16 05:28:00,
2013-01-16 00:32:00,29.9,27.9,30.12,ENE,59,1.0,1.0,92,0.00,,,0.00,Wunderground v.1.15,2013-01-16 05:32:00,
2013-01-16 00:34:00,29.9,27.9,30.12,ENE,58,0.0,1.0,92,0.00,,,0.00,Wunderground v.1.15,2013-01-16 05:34:00,
2013-01-16 00:36:00,29.9,27.9,30.13,ENE,59,2.0,2.0,92,0.00,,,0.00,Wunderground v.1.15,2013-01-16 05:36:00,
2013-01-16 00:39:00,29.9,27.9,30.13,ENE,58,0.0,2.0,92,0.00,,,0.00,Wunderground v.1.15,2013-01-16 05:39:00,
2013-01-16 00:40:00,29.9,27.9,30.13,ENE,58,0.0,1.0,92,0.00,,,0.00,Wunderground v.1.15,2013-01-16 05:40:00,
2013-01-16 00:46:00,29.9,27.9,30.14,ENE,59,0.0,1.0,92,0.00,,,0.00,Wunderground v.1.15,2013-01-16 05:46:00,
2013-01-16 00:47:00,29.9,27.9,30.14,ENE,58,0.0,1.0,92,0.00,,,0.00,Wunderground v.1.15,2013-01-16 05:47:00,
2013-01-16 00:52:00,29.9,27.9,30.13,ENE,59,0.0,0.0,92,0.00,,,0.00,Wunderground v.1.15,2013-01-16 05:52:00,
2013-01-16 00:54:00,29.9,27.9,30.13,ENE,58,0.0,0.0,92,0.00,,,0.00,Wunderground v.1.15,2013-01-16 05:54:00,
2013-01-16 00:58:00,29.9,27.9,30.11,ENE,58,0.0,0.0,92,0.00,,,0.00,Wunderground v.1.15,2013-01-16 05:58:00,
2013-01-16 01:00:00,29.9,27.9,30.10,ENE,59,0.0,0.0,92,0.00,,,0.00,Wunderground v.1.15,2013-01-16 06:00:00,
2013-01-16 01:06:00,29.9,27.9,30.08,ENE,58,0.0,0.0,92,0.00,,,0.00,Wunderground v.1.15,2013-01-16 06:06:00,
2013-01-16 01:07:00,29.9,27.9,30.09,ENE,59,1.0,1.0,92,0.00,,,0.00,Wunderground v.1.15,2013-01-16 06:07:00,
2013-01-16 01:12:00,29.9,27.9,30.09,ENE,59,0.0,1.0,92,0.00,,,0.00,Wunderground v.1.15,2013-01-16 06:12:00,
2013-01-16 01:16:00,29.9,27.9,30.10,ENE,58,0.0,2.0,92,0.00,,,0.00,Wunderground v.1.15,2013-01-16 06:16:00,
2013-01-16 01:21:00,29.9,27.9,30.11,ENE,59,0.0,1.0,92,0.00,,,0.00,Wunderground v.1.15,2013-01-16 06:21:00,
2013-01-16 01:22:00,29.9,27.9,30.11,ENE,58,0.0,1.0,92,0.00,,,0.00,Wunderground v.1.15,2013-01-16 06:22:00,
2013-01-16 01:23:00,29.9,27.9,30.11,ENE,58,0.0,1.0,92,0.00,,,0.00,Wunderground v.1.15,2013-01-16 06:23:00,
2013-01-16 01:29:00,29.9,27.9,30.12,ENE,59,0.0,1.0,92,0.00,,,0.00,Wunderground v.1.15,2013-01-16 06:29:00,
2013-01-16 01:35:00,29.9,27.9,30.10,ENE,58,0.0,0.0,92,0.00,,,0.00,Wunderground v.1.15,2013-01-16 06:35:00,
2013-01-16 01:37:00,29.9,27.9,30.11,ENE,59,0.0,0.0,92,0.00,,,0.00,Wunderground v.1.15,2013-01-16 06:37:00,
2013-01-16 01:42:00,29.9,28.1,30.11,ENE,59,0.0,0.0,93,0.00,,,0.00,Wunderground v.1.15,2013-01-16 06:42:00,
2013-01-16 01:45:00,29.9,28.1,30.11,ENE,59,0.0,0.0,93,0.00,,,0.00,Wunderground v.1.15,2013-01-16 06:45:00,
2013-01-16 01:48:00,29.9,28.1,30.11,ENE,59,0.0,0.0,93,0.00,,,0.00,Wunderground v.1.15,2013-01-16 06:48:00,
2013-01-16 01:49:00,29.9,28.1,30.11,ENE,58,0.0,0.0,93,0.00,,,0.00,Wunderground v.1.15,2013-01-16 06:49:00,
2013-01-16 01:53:00,29.9,28.1,30.11,ENE,59,0.0,0.0,93,0.00,,,0.00,Wunderground v.1.15,2013-01-16 06:53:00,
2013-01-16 01:57:00,29.9,27.9,30.10,ENE,58,0.0,0.0,92,0.00,,,0.00,Wunderground v.1.15,2013-01-16 06:57:00,
2013-01-16 01:58:00,29.9,27.9,30.10,ENE,59,0.0,0.0,92,0.00,,,0.00,Wunderground v.1.15,2013-01-16 06:58:00,
2013-01-16 02:01:00,30.0,28.0,30.10,ENE,58,0.0,0.0,92,0.00,,,0.00,Wunderground v.1.15,2013-01-16 07:01:00,
2013-01-16 02:02:00,30.0,28.0,30.11,ENE,59,0.0,0.0,92,0.00,,,0.00,Wunderground v.1.15,2013-01-16 07:02:00,
2013-01-16 02:03:00,29.9,27.9,30.10,ENE,59,0.0,0.0,92,0.00,,,0.00,Wunderground v.1.15,2013-01-16 07:03:00,
2013-01-16 02:06:00,30.0,28.0,30.10,ENE,59,0.0,0.0,92,0.00,,,0.00,Wunderground v.1.15,2013-01-16 07:06:00,
2013-01-16 02:07:00,30.0,28.0,30.10,ENE,59,0.0,0.0,92,0.00,,,0.00,Wunderground v.1.15,2013-01-16 07:07:00,
2013-01-16 02:08:00,29.9,27.9,30.09,ENE,59,0.0,0.0,92,0.00,,,0.00,Wunderground v.1.15,2013-01-16 07:08:00,
2013-01-16 02:11:00,30.0,28.0,30.09,ENE,58,0.0,0.0,92,0.00,,,0.00,Wunderground v.1.15,2013-01-16 07:11:00,
2013-01-16 02:13:00,30.0,28.0,30.09,ENE,59,0.0,0.0,92,0.00,,,0.00,Wunderground v.1.15,2013-01-16 07:13:00,
2013-01-16 02:17:00,30.0,28.0,30.08,ENE,59,1.0,2.0,92,0.00,,,0.00,Wunderground v.1.15,2013-01-16 07:17:00,
2013-01-16 02:18:00,30.0,28.0,30.07,ENE,59,0.0,2.0,92,0.00,,,0.00,Wunderground v.1.15,2013-01-16 07:18:00,
2013-01-16 02:22:00,29.9,28.1,30.09,ENE,58,2.0,2.0,93,0.00,,,0.00,Wunderground v.1.15,2013-01-16 07:22:00,
2013-01-16 02:24:00,29.9,28.1,30.10,ENE,59,0.0,2.0,93,0.00,,,0.00,Wunderground v.1.15,2013-01-16 07:24:00,
2013-01-16 02:27:00,29.9,27.9,30.10,ENE,59,0.0,2.0,92,0.00,,,0.00,Wunderground v.1.15,2013-01-16 07:27:00,
2013-01-16 02:28:00,29.9,27.9,30.10,ENE,58,0.0,2.0,92,0.00,,,0.00,Wunderground v.1.15,2013-01-16 07:28:00,
2013-01-16 02:29:00,29.9,27.9,30.10,ENE,59,0.0,2.0,92,0.00,,,0.00,Wunderground v.1.15,2013-01-16 07:29:00,
2013-01-16 02:32:00,29.9,27.9,30.08,ENE,59,0.0,2.0,92,0.00,,,0.00,Wunderground v.1.15,2013-01-16 07:32:00,
2013-01-16 02:33:00,29.9,27.9,30.09,ENE,59,0.0,2.0,92,0.00,,,0.00,Wunderground v.1.15,2013-01-16 07:33:00,
2013-01-16 02:34:00,29.9,28.1,30.09,ENE,59,0.0,2.0,93,0.00,,,0.00,Wunderground v.1.15,2013-01-16 07:34:00,
2013-01-16 02:37:00,29.9,28.1,30.11,ENE,59,0.0,2.0,93,0.00,,,0.00,Wunderground v.1.15,2013-01-16 07:37:00,
2013-01-16 02:38:00,29.9,28.1,30.11,ENE,58,0.0,2.0,93,0.00,,,0.00,Wunderground v.1.15,2013-01-16 07:38:00,
2013-01-16 02:39:00,29.9,28.1,30.10,ENE,58,0.0,2.0,93,0.00,,,0.00,Wunderground v.1.15,2013-01-16 07:39:00,
2013-01-16 02:43:00,29.9,27.9,30.10,ENE,59,0.0,0.0,92,0.00,,,0.00,Wunderground v.1.15,2013-01-16 07:43:00,
2013-01-16 02:44:00,29.9,27.9,30.10,ENE,59,0.0,0.0,92,0.00,,,0.00,Wunderground v.1.15,2013-01-16 07:44:00,
2013-01-16 02:45:00,29.8,27.8,30.11,ENE,59,0.0,0.0,92,0.00,,,0.00,Wunderground v.1.15,2013-01-16 07:45:00,
2013-01-16 02:48:00,29.9,27.9,30.10,ENE,59,0.0,0.0,92,0.00,,,0.00,Wunderground v.1.15,2013-01-16 07:48:00,
2013-01-16 02:50:00,29.9,27.9,30.09,ENE,58,0.0,0.0,92,0.00,,,0.00,Wunderground v.1.15,2013-01-16 07:50:00,
2013-01-16 02:53:00,29.9,28.1,30.09,ENE,58,0.0,0.0,93,0.00,,,0.00,Wunderground v.1.15,2013-01-16 07:53:00,
2013-01-16 02:54:00,29.9,28.1,30.09,ENE,59,0.0,0.0,93,0.00,,,0.00,Wunderground v.1.15,2013-01-16 07:54:00,
2013-01-16 02:55:00,29.9,28.1,30.10,ENE,59,0.0,0.0,93,0.00,,,0.00,Wunderground v.1.15,2013-01-16 07:55:00,
2013-01-16 02:56:00,29.9,28.1,30.10,ENE,58,0.0,0.0,93,0.00,,,0.00,Wunderground v.1.15,2013-01-16 07:56:00,
2013-01-16 02:58:00,29.9,28.1,30.10,ENE,58,0.0,0.0,93,0.00,,,0.00,Wunderground v.1.15,2013-01-16 07:58:00,
2013-01-16 02:59:00,29.9,28.1,30.09,ENE,59,0.0,0.0,93,0.00,,,0.00,Wunderground v.1.15,2013-01-16 07:59:00,
2013-01-16 03:00:00,29.9,28.1,30.09,ENE,59,0.0,0.0,93,0.00,,,0.00,Wunderground v.1.15,2013-01-16 08:00:00,
2013-01-16 03:01:00,29.9,28.1,30.09,ENE,58,0.0,0.0,93,0.00,,,0.00,Wunderground v.1.15,2013-01-16 08:01:00,
2013-01-16 03:03:00,29.9,28.1,30.09,ENE,59,0.0,0.0,93,0.00,,,0.00,Wunderground v.1.15,2013-01-16 08:03:00,
2013-01-16 03:04:00,29.9,28.1,30.09,ENE,59,0.0,0.0,93,0.00,,,0.00,Wunderground v.1.15,2013-01-16 08:04:00,
2013-01-16 03:05:00,29.9,28.1,30.08,ENE,58,0.0,2.0,93,0.00,,,0.00,Wunderground v.1.15,2013-01-16 08:05:00,
2013-01-16 03:06:00,29.9,28.1,30.08,ENE,58,3.0,3.0,93,0.00,,,0.00,Wunderground v.1.15,2013-01-16 08:06:00,
2013-01-16 03:08:00,29.9,28.1,30.08,ENE,58,0.0,3.0,93,0.00,,,0.00,Wunderground v.1.15,2013-01-16 08:08:00,
2013-01-16 03:09:00,29.9,28.1,30.08,ENE,58,0.0,3.0,93,0.00,,,0.00,Wunderground v.1.15,2013-01-16 08:09:00,
2013-01-16 03:10:00,29.9,28.1,30.08,ENE,58,0.0,1.0,93,0.00,,,0.00,Wunderground v.1.15,2013-01-16 08:10:00,
2013-01-16 03:11:00,29.9,28.1,30.09,ENE,58,1.0,3.0,93,0.00,,,0.00,Wunderground v.1.15,2013-01-16 08:11:00,
2013-01-16 03:13:00,29.9,28.1,30.09,ENE,58,0.0,3.0,93,0.00,,,0.00,Wunderground v.1.15,2013-01-16 08:13:00,
2013-01-16 03:16:00,29.9,28.1,30.08,ENE,58,1.0,3.0,93,0.00,,,0.00,Wunderground v.1.15,2013-01-16 08:16:00,
2013-01-16 03:18:00,29.9,28.1,30.08,ENE,58,0.0,3.0,93,0.00,,,0.00,Wunderground v.1.15,2013-01-16 08:18:00,
2013-01-16 03:21:00,29.9,28.1,30.08,ENE,58,0.0,0.0,93,0.00,,,0.00,Wunderground v.1.15,2013-01-16 08:21:00,
2013-01-16 03:24:00,29.9,28.1,30.08,ENE,58,0.0,1.0,93,0.00,,,0.00,Wunderground v.1.15,2013-01-16 08:24:00,
2013-01-16 03:26:00,29.9,28.1,30.08,ENE,58,0.0,1.0,93,0.00,,,0.00,Wunderground v.1.15,2013-01-16 08:26:00,
2013-01-16 03:29:00,29.8,27.8,30.09,ENE,58,0.0,1.0,92,0.00,,,0.00,Wunderground v.1.15,2013-01-16 08:29:00,
2013-01-16 03:31:00,29.8,27.8,30.09,ENE,58,0.0,0.0,92,0.00,,,0.00,Wunderground v.1.15,2013-01-16 08:31:00,
2013-01-16 03:34:00,29.8,27.8,30.10,ENE,58,0.0,0.0,92,0.00,,,0.00,Wunderground v.1.15,2013-01-16 08:34:00,
2013-01-16 03:36:00,29.8,27.8,30.10,ENE,58,0.0,0.0,92,0.00,,,0.00,Wunderground v.1.15,2013-01-16 08:36:00,
2013-01-16 03:39:00,29.9,28.1,30.10,ENE,58,0.0,0.0,93,0.00,,,0.00,Wunderground v.1.15,2013-01-16 08:39:00,
2013-01-16 03:41:00,29.9,28.1,30.10,ENE,58,0.0,0.0,93,0.00,,,0.00,Wunderground v.1.15,2013-01-16 08:41:00,
2013-01-16 03:42:00,29.9,28.1,30.10,ENE,58,0.0,0.0,93,0.00,,,0.00,Wunderground v.1.15,2013-01-16 08:42:00,
2013-01-16 03:44:00,29.9,27.9,30.10,ENE,58,0.0,0.0,92,0.00,,,0.00,Wunderground v.1.15,2013-01-16 08:44:00,
2013-01-16 03:46:00,30.0,28.0,30.09,ENE,58,0.0,0.0,92,0.00,,,0.00,Wunderground v.1.15,2013-01-16 08:46:00,
2013-01-16 03:47:00,30.0,28.0,30.09,ENE,58,0.0,1.0,92,0.00,,,0.00,Wunderground v.1.15,2013-01-16 08:47:00,
2013-01-16 03:49:00,30.0,28.0,30.09,ENE,58,0.0,2.0,92,0.00,,,0.00,Wunderground v.1.15,2013-01-16 08:49:00,
2013-01-16 03:51:00,30.0,28.0,30.10,ENE,58,0.0,0.0,92,0.00,,,0.00,Wunderground v.1.15,2013-01-16 08:51:00,
2013-01-16 03:52:00,30.0,28.0,30.10,ENE,58,0.0,0.0,92,0.00,,,0.00,Wunderground v.1.15,2013-01-16 08:52:00,
2013-01-16 03:54:00,30.0,28.0,30.09,ENE,58,0.0,0.0,92,0.00,,,0.00,Wunderground v.1.15,2013-01-16 08:54:00,
2013-01-16 03:56:00,30.0,28.0,30.09,ENE,58,0.0,0.0,92,0.00,,,0.00,Wunderground v.1.15,2013-01-16 08:56:00,
2013-01-16 03:57:00,30.0,28.0,30.08,ENE,58,0.0,0.0,92,0.00,,,0.00,Wunderground v.1.15,2013-01-16 08:57:00,
2013-01-16 03:59:00,30.0,28.0,30.08,ENE,58,0.0,0.0,92,0.00,,,0.00,Wunderground v.1.15,2013-01-16 08:59:00,
2013-01-16 04:01:00,30.0,28.0,30.09,ENE,58,0.0,0.0,92,0.00,,,0.00,Wunderground v.1.15,2013-01-16 09:01:00,
2013-01-16 04:02:00,30.0,28.0,30.08,ENE,58,0.0,0.0,92,0.00,,,0.00,Wunderground v.1.15,2013-01-16 09:02:00,
2013-01-16 04:04:00,30.0,28.0,30.09,ENE,58,0.0,0.0,92,0.00,,,0.00,Wunderground v.1.15,2013-01-16 09:04:00,
2013-01-16 04:06:00,30.0,28.0,30.09,ENE,58,0.0,0.0,92,0.00,,,0.00,Wunderground v.1.15,2013-01-16 09:06:00,
2013-01-16 04:07:00,30.0,28.0,30.09,ENE,58,0.0,0.0,92,0.00,,,0.00,Wunderground v.1.15,2013-01-16 09:07:00,
2013-01-16 04:09:00,30.0,28.2,30.09,ENE,58,0.0,0.0,93,0.00,,,0.00,Wunderground v.1.15,2013-01-16 09:09:00,
2013-01-16 04:11:00,30.0,28.2,30.08,ENE,58,0.0,0.0,93,0.00,,,0.00,Wunderground v.1.15,2013-01-16 09:11:00,
2013-01-16 04:12:00,30.0,28.2,30.08,ENE,58,0.0,0.0,93,0.00,,,0.00,Wunderground v.1.15,2013-01-16 09:12:00,
2013-01-16 04:14:00,30.0,28.2,30.08,ENE,58,0.0,0.0,93,0.00,,,0.00,Wunderground v.1.15,2013-01-16 09:14:00,
2013-01-16 04:16:00,30.0,28.0,30.08,ENE,58,0.0,0.0,92,0.00,,,0.00,Wunderground v.1.15,2013-01-16 09:16:00,
2013-01-16 04:17:00,30.0,28.0,30.08,ENE,58,0.0,0.0,92,0.00,,,0.00,Wunderground v.1.15,2013-01-16 09:17:00,
2013-01-16 04:19:00,30.0,28.0,30.07,ENE,58,0.0,0.0,92,0.00,,,0.00,Wunderground v.1.15,2013-01-16 09:19:00,
2013-01-16 04:21:00,30.0,28.0,30.07,ENE,58,0.0,0.0,92,0.00,,,0.00,Wunderground v.1.15,2013-01-16 09:21:00,
2013-01-16 04:22:00,30.0,28.0,30.07,ENE,58,0.0,0.0,92,0.00,,,0.00,Wunderground v.1.15,2013-01-16 09:22:00,
2013-01-16 04:24:00,30.0,28.0,30.06,ENE,58,0.0,0.0,92,0.00,,,0.00,Wunderground v.1.15,2013-01-16 09:24:00,
2013-01-16 04:27:00,30.0,28.0,30.06,ENE,58,0.0,0.0,92,0.00,,,0.00,Wunderground v.1.15,2013-01-16 09:27:00,
2013-01-16 04:30:00,30.0,28.0,30.07,ENE,58,0.0,0.0,92,0.00,,,0.00,Wunderground v.1.15,2013-01-16 09:30:00,
2013-01-16 04:32:00,30.0,28.0,30.07,ENE,58,0.0,0.0,92,0.00,,,0.00,Wunderground v.1.15,2013-01-16 09:32:00,
2013-01-16 04:33:00,30.0,28.0,30.08,ENE,58,0.0,0.0,92,0.00,,,0.00,Wunderground v.1.15,2013-01-16 09:33:00,
2013-01-16 04:35:00,29.9,27.9,30.08,ENE,58,0.0,0.0,92,0.00,,,0.00,Wunderground v.1.15,2013-01-16 09:35:00,
2013-01-16 04:37:00,29.9,27.9,30.08,ENE,58,0.0,0.0,92,0.00,,,0.00,Wunderground v.1.15,2013-01-16 09:37:00,
2013-01-16 04:38:00,29.9,27.9,30.08,ENE,58,0.0,0.0,92,0.00,,,0.00,Wunderground v.1.15,2013-01-16 09:38:00,
2013-01-16 04:40:00,29.9,27.9,30.08,ENE,58,0.0,0.0,92,0.00,,,0.00,Wunderground v.1.15,2013-01-16 09:40:00,
2013-01-16 04:42:00,29.9,27.9,30.08,ENE,58,0.0,0.0,92,0.00,,,0.00,Wunderground v.1.15,2013-01-16 09:42:00,
2013-01-16 04:43:00,29.9,27.9,30.08,ENE,58,0.0,0.0,92,0.00,,,0.00,Wunderground v.1.15,2013-01-16 09:43:00,
2013-01-16 04:45:00,29.9,27.9,30.08,ENE,58,0.0,0.0,92,0.00,,,0.00,Wunderground v.1.15,2013-01-16 09:45:00,
2013-01-16 04:47:00,30.0,28.2,30.08,ENE,58,0.0,0.0,93,0.00,,,0.00,Wunderground v.1.15,2013-01-16 09:47:00,
2013-01-16 04:48:00,30.0,28.2,30.08,ENE,58,0.0,0.0,93,0.00,,,0.00,Wunderground v.1.15,2013-01-16 09:48:00,
2013-01-16 04:50:00,30.0,28.2,30.07,ENE,58,0.0,0.0,93,0.00,,,0.00,Wunderground v.1.15,2013-01-16 09:50:00,
2013-01-16 04:52:00,30.0,28.0,30.07,ENE,58,0.0,0.0,92,0.00,,,0.00,Wunderground v.1.15,2013-01-16 09:52:00,
2013-01-16 04:53:00,30.0,28.0,30.07,ENE,58,0.0,0.0,92,0.00,,,0.00,Wunderground v.1.15,2013-01-16 09:53:00,
2013-01-16 04:54:00,30.0,28.0,30.07,ENE,58,0.0,0.0,92,0.00,,,0.00,Wunderground v.1.15,2013-01-16 09:54:00,
2013-01-16 04:55:00,30.0,28.0,30.07,ENE,58,0.0,0.0,92,0.00,,,0.00,Wunderground v.1.15,2013-01-16 09:55:00,
2013-01-16 04:57:00,30.0,28.0,30.07,ENE,58,0.0,0.0,92,0.00,,,0.00,Wunderground v.1.15,2013-01-16 09:57:00,
2013-01-16 04:58:00,30.0,28.0,30.07,ENE,58,0.0,0.0,92,0.00,,,0.00,Wunderground v.1.15,2013-01-16 09:58:00,
2013-01-16 04:59:00,30.0,28.2,30.08,ENE,58,0.0,0.0,93,0.00,,,0.00,Wunderground v.1.15,2013-01-16 09:59:00,
2013-01-16 05:00:00,30.0,28.2,30.08,ENE,58,0.0,0.0,93,0.00,,,0.00,Wunderground v.1.15,2013-01-16 10:00:00,
2013-01-16 05:02:00,30.0,28.2,30.08,ENE,58,0.0,0.0,93,0.00,,,0.00,Wunderground v.1.15,2013-01-16 10:02:00,
2013-01-16 05:03:00,30.0,28.2,30.08,ENE,58,0.0,0.0,93,0.00,,,0.00,Wunderground v.1.15,2013-01-16 10:03:00,
2013-01-16 05:04:00,30.0,28.2,30.08,ENE,58,0.0,0.0,93,0.00,,,0.00,Wunderground v.1.15,2013-01-16 10:04:00,
2013-01-16 05:05:00,30.0,28.2,30.08,ENE,58,0.0,0.0,93,0.00,,,0.00,Wunderground v.1.15,2013-01-16 10:05:00,
2013-01-16 05:07:00,30.1,28.3,30.08,ENE,58,0.0,0.0,93,0.00,,,0.00,Wunderground v.1.15,2013-01-16 10:07:00,
2013-01-16 05:08:00,30.0,28.2,30.08,ENE,58,0.0,0.0,93,0.00,,,0.00,Wunderground v.1.15,2013-01-16 10:08:00,
2013-01-16 05:09:00,30.1,28.3,30.08,ENE,58,0.0,0.0,93,0.00,,,0.00,Wunderground v.1.15,2013-01-16 10:09:00,
2013-01-16 05:11:00,30.1,28.3,30.07,ENE,58,0.0,0.0,93,0.00,,,0.00,Wunderground v.1.15,2013-01-16 10:11:00,
2013-01-16 05:12:00,30.1,28.3,30.07,ENE,58,0.0,0.0,93,0.00,,,0.00,Wunderground v.1.15,2013-01-16 10:12:00,
2013-01-16 05:13:00,30.1,28.3,30.07,ENE,58,0.0,0.0,93,0.00,,,0.00,Wunderground v.1.15,2013-01-16 10:13:00,
2013-01-16 05:14:00,30.1,28.3,30.07,ENE,58,0.0,0.0,93,0.00,,,0.00,Wunderground v.1.15,2013-01-16 10:14:00,
2013-01-16 05:16:00,30.1,28.3,30.08,ENE,58,0.0,0.0,93,0.00,,,0.00,Wunderground v.1.15,2013-01-16 10:16:00,
2013-01-16 05:18:00,30.1,28.3,30.08,ENE,58,0.0,0.0,93,0.00,,,0.00,Wunderground v.1.15,2013-01-16 10:18:00,
2013-01-16 05:20:00,30.1,28.3,30.08,ENE,58,0.0,0.0,93,0.00,,,0.00,Wunderground v.1.15,2013-01-16 10:20:00,
2013-01-16 05:21:00,30.1,28.3,30.08,ENE,58,0.0,0.0,93,0.00,,,0.00,Wunderground v.1.15,2013-01-16 10:21:00,
2013-01-16 05:23:00,30.1,28.3,30.08,ENE,58,0.0,0.0,93,0.00,,,0.00,Wunderground v.1.15,2013-01-16 10:23:00,
2013-01-16 05:25:00,30.1,28.3,30.07,ENE,58,0.0,0.0,93,0.00,,,0.00,Wunderground v.1.15,2013-01-16 10:25:00,
2013-01-16 05:26:00,30.1,28.3,30.07,ENE,58,0.0,0.0,93,0.00,,,0.00,Wunderground v.1.15,2013-01-16 10:26:00,
2013-01-16 05:28:00,30.1,28.3,30.07,ENE,58,0.0,1.0,93,0.00,,,0.00,Wunderground v.1.15,2013-01-16 10:28:00,
2013-01-16 05:30:00,30.1,28.3,30.07,ENE,58,0.0,0.0,93,0.00,,,0.00,Wunderground v.1.15,2013-01-16 10:30:00,
2013-01-16 05:31:00,30.1,28.3,30.07,ENE,58,0.0,0.0,93,0.00,,,0.00,Wunderground v.1.15,2013-01-16 10:31:00,
2013-01-16 05:33:00,30.1,28.3,30.07,ENE,58,0.0,0.0,93,0.00,,,0.00,Wunderground v.1.15,2013-01-16 10:33:00,
2013-01-16 05:36:00,30.1,28.3,30.07,ENE,58,0.0,0.0,93,0.00,,,0.00,Wunderground v.1.15,2013-01-16 10:36:00,
2013-01-16 05:38:00,30.1,28.3,30.07,ENE,58,0.0,0.0,93,0.00,,,0.00,Wunderground v.1.15,2013-01-16 10:38:00,
2013-01-16 05:41:00,30.1,28.3,30.07,ENE,58,0.0,0.0,93,0.00,,,0.00,Wunderground v.1.15,2013-01-16 10:41:00,
2013-01-16 05:43:00,30.1,28.3,30.07,ENE,58,0.0,0.0,93,0.00,,,0.00,Wunderground v.1.15,2013-01-16 10:43:00,
2013-01-16 05:46:00,30.1,28.3,30.07,ENE,58,0.0,0.0,93,0.00,,,0.00,Wunderground v.1.15,2013-01-16 10:46:00,
2013-01-16 05:48:00,30.1,28.3,30.07,ENE,58,0.0,0.0,93,0.00,,,0.00,Wunderground v.1.15,2013-01-16 10:48:00,
2013-01-16 05:51:00,30.1,28.3,30.08,ENE,58,0.0,0.0,93,0.00,,,0.00,Wunderground v.1.15,2013-01-16 10:51:00,
2013-01-16 05:53:00,30.1,28.3,30.07,ENE,58,0.0,0.0,93,0.00,,,0.00,Wunderground v.1.15,2013-01-16 10:53:00,
2013-01-16 05:54:00,30.1,28.3,30.07,ENE,58,0.0,0.0,93,0.00,,,0.00,Wunderground v.1.15,2013-01-16 10:54:00,
2013-01-16 05:56:00,30.1,28.3,30.08,ENE,58,0.0,0.0,93,0.00,,,0.00,Wunderground v.1.15,2013-01-16 10:56:00,
2013-01-16 05:58:00,30.1,28.1,30.08,ENE,58,0.0,0.0,92,0.00,,,0.00,Wunderground v.1.15,2013-01-16 10:58:00,
2013-01-16 05:59:00,30.1,28.1,30.08,ENE,58,0.0,0.0,92,0.00,,,0.00,Wunderground v.1.15,2013-01-16 10:59:00,
2013-01-16 06:01:00,30.1,28.1,30.08,ENE,58,0.0,0.0,92,0.00,,,0.00,Wunderground v.1.15,2013-01-16 11:01:00,
2013-01-16 06:03:00,30.1,28.1,30.07,ENE,58,0.0,0.0,92,0.00,,,0.00,Wunderground v.1.15,2013-01-16 11:03:00,
2013-01-16 06:04:00,30.1,28.1,30.07,ENE,58,0.0,0.0,92,0.00,,,0.00,Wunderground v.1.15,2013-01-16 11:04:00,
2013-01-16 06:06:00,30.1,28.1,30.06,ENE,58,0.0,0.0,92,0.00,,,0.00,Wunderground v.1.15,2013-01-16 11:06:00,
2013-01-16 06:07:00,30.2,28.2,30.06,ENE,58,0.0,0.0,92,0.00,,,0.00,Wunderground v.1.15,2013-01-16 11:07:00,
2013-01-16 06:08:00,30.2,28.2,30.06,ENE,58,0.0,0.0,92,0.00,,,0.00,Wunderground v.1.15,2013-01-16 11:08:00,
2013-01-16 06:09:00,30.2,28.2,30.06,ENE,58,0.0,0.0,92,0.00,,,0.00,Wunderground v.1.15,2013-01-16 11:09:00,
2013-01-16 06:11:00,30.2,28.4,30.06,ENE,58,0.0,0.0,93,0.00,,,0.00,Wunderground v.1.15,2013-01-16 11:11:00,
2013-01-16 06:12:00,30.2,28.4,30.06,ENE,58,0.0,0.0,93,0.00,,,0.00,Wunderground v.1.15,2013-01-16 11:12:00,
2013-01-16 06:13:00,30.2,28.4,30.06,ENE,58,0.0,0.0,93,0.00,,,0.00,Wunderground v.1.15,2013-01-16 11:13:00,
2013-01-16 06:14:00,30.2,28.4,30.06,ENE,58,0.0,0.0,93,0.00,,,0.00,Wunderground v.1.15,2013-01-16 11:14:00,
2013-01-16 06:16:00,30.2,28.4,30.05,ENE,58,0.0,0.0,93,0.00,,,0.00,Wunderground v.1.15,2013-01-16 11:16:00,
2013-01-16 06:17:00,30.2,28.4,30.05,ENE,58,0.0,0.0,93,0.00,,,0.00,Wunderground v.1.15,2013-01-16 11:17:00,
2013-01-16 06:20:00,30.2,28.2,30.06,ENE,58,0.0,0.0,92,0.00,,,0.00,Wunderground v.1.15,2013-01-16 11:20:00,
2013-01-16 06:21:00,30.2,28.4,30.06,ENE,58,0.0,0.0,93,0.00,,,0.00,Wunderground v.1.15,2013-01-16 11:21:00,
2013-01-16 06:24:00,30.2,28.2,30.06,ENE,58,0.0,0.0,92,0.00,,,0.00,Wunderground v.1.15,2013-01-16 11:24:00,
2013-01-16 06:26:00,30.2,28.2,30.06,ENE,58,0.0,0.0,92,0.00,,,0.00,Wunderground v.1.15,2013-01-16 11:26:00,
2013-01-16 06:27:00,30.2,28.4,30.06,ENE,58,0.0,0.0,93,0.00,,,0.00,Wunderground v.1.15,2013-01-16 11:27:00,
2013-01-16 06:30:00,30.3,28.5,30.06,ENE,58,0.0,0.0,93,0.00,,,0.00,Wunderground v.1.15,2013-01-16 11:30:00,
2013-01-16 06:33:00,30.3,28.5,30.06,ENE,58,0.0,0.0,93,0.00,,,0.00,Wunderground v.1.15,2013-01-16 11:33:00,
2013-01-16 06:35:00,30.3,28.5,30.06,ENE,58,0.0,0.0,93,0.00,,,0.00,Wunderground v.1.15,2013-01-16 11:35:00,
2013-01-16 06:40:00,30.3,28.5,30.05,ENE,58,0.0,0.0,93,0.00,,,0.00,Wunderground v.1.15,2013-01-16 11:40:00,
2013-01-16 06:41:00,30.3,28.5,30.05,ENE,58,0.0,0.0,93,0.00,,,0.00,Wunderground v.1.15,2013-01-16 11:41:00,
2013-01-16 06:42:00,30.3,28.5,30.05,ENE,58,0.0,0.0,93,0.00,,,0.00,Wunderground v.1.15,2013-01-16 11:42:00,
2013-01-16 06:47:00,30.3,28.5,30.05,ENE,58,0.0,0.0,93,0.00,,,0.00,Wunderground v.1.15,2013-01-16 11:47:00,
2013-01-16 06:48:00,30.3,28.5,30.05,ENE,58,0.0,0.0,93,0.00,,,0.00,Wunderground v.1.15,2013-01-16 11:48:00,
2013-01-16 06:50:00,30.3,28.5,30.06,ENE,58,0.0,0.0,93,0.00,,,0.00,Wunderground v.1.15,2013-01-16 11:50:00,
2013-01-16 06:52:00,30.3,28.5,30.06,ENE,58,0.0,0.0,93,0.00,,,0.00,Wunderground v.1.15,2013-01-16 11:52:00,
2013-01-16 06:53:00,30.3,28.5,30.06,ENE,58,0.0,0.0,93,0.00,,,0.00,Wunderground v.1.15,2013-01-16 11:53:00,
2013-01-16 06:55:00,30.3,28.5,30.06,ENE,58,0.0,0.0,93,0.00,,,0.00,Wunderground v.1.15,2013-01-16 11:55:00,
2013-01-16 06:57:00,30.3,28.5,30.06,ENE,58,0.0,0.0,93,0.00,,,0.00,Wunderground v.1.15,2013-01-16 11:57:00,
2013-01-16 06:58:00,30.3,28.5,30.06,ENE,58,0.0,0.0,93,0.00,,,0.00,Wunderground v.1.15,2013-01-16 11:58:00,
2013-01-16 07:00:00,30.3,28.5,30.06,ENE,58,0.0,0.0,93,0.00,,,0.00,Wunderground v.1.15,2013-01-16 12:00:00,
2013-01-16 07:02:00,30.3,28.5,30.06,ENE,58,0.0,0.0,93,0.00,,,0.00,Wunderground v.1.15,2013-01-16 12:02:00,
2013-01-16 07:04:00,30.3,28.5,30.06,ENE,58,0.0,0.0,93,0.00,,,0.00,Wunderground v.1.15,2013-01-16 12:04:00,
2013-01-16 07:05:00,30.3,28.5,30.06,ENE,58,0.0,0.0,93,0.00,,,0.00,Wunderground v.1.15,2013-01-16 12:05:00,
2013-01-16 07:06:00,30.3,28.5,30.06,ENE,58,0.0,0.0,93,0.00,,,0.00,Wunderground v.1.15,2013-01-16 12:06:00,
2013-01-16 07:07:00,30.3,28.5,30.05,ENE,58,0.0,0.0,93,0.00,,,0.00,Wunderground v.1.15,2013-01-16 12:07:00,
2013-01-16 07:09:00,30.3,28.5,30.05,ENE,58,0.0,0.0,93,0.00,,,0.00,Wunderground v.1.15,2013-01-16 12:09:00,
2013-01-16 07:10:00,30.3,28.5,30.05,ENE,58,0.0,0.0,93,0.00,,,0.00,Wunderground v.1.15,2013-01-16 12:10:00,
2013-01-16 07:11:00,30.3,28.5,30.05,ENE,58,0.0,0.0,93,0.00,,,0.00,Wunderground v.1.15,2013-01-16 12:11:00,
2013-01-16 07:12:00,30.3,28.5,30.06,ENE,58,0.0,0.0,93,0.00,,,0.00,Wunderground v.1.15,2013-01-16 12:12:00,
2013-01-16 07:14:00,30.3,28.5,30.06,ENE,58,0.0,0.0,93,0.00,,,0.00,Wunderground v.1.15,2013-01-16 12:14:00,
2013-01-16 07:15:00,30.3,28.5,30.06,ENE,58,0.0,0.0,93,0.00,,,0.00,Wunderground v.1.15,2013-01-16 12:15:00,
2013-01-16 07:16:00,30.3,28.5,30.06,ENE,58,0.0,0.0,93,0.00,,,0.00,Wunderground v.1.15,2013-01-16 12:16:00,
2013-01-16 07:18:00,30.3,28.5,30.06,ENE,58,0.0,0.0,93,0.00,,,0.00,Wunderground v.1.15,2013-01-16 12:18:00,
2013-01-16 07:19:00,30.3,28.5,30.06,ENE,58,0.0,0.0,93,0.00,,,0.00,Wunderground v.1.15,2013-01-16 12:19:00,
2013-01-16 07:20:00,30.3,28.5,30.06,ENE,58,0.0,0.0,93,0.00,,,0.00,Wunderground v.1.15,2013-01-16 12:20:00,
2013-01-16 07:21:00,30.3,28.5,30.07,ENE,58,0.0,0.0,93,0.00,,,0.00,Wunderground v.1.15,2013-01-16 12:21:00,
2013-01-16 07:23:00,30.3,28.5,30.07,ENE,58,0.0,0.0,93,0.00,,,0.00,Wunderground v.1.15,2013-01-16 12:23:00,
2013-01-16 07:25:00,30.3,28.5,30.07,ENE,58,0.0,0.0,93,0.00,,,0.00,Wunderground v.1.15,2013-01-16 12:25:00,
2013-01-16 07:26:00,30.3,28.5,30.07,ENE,58,0.0,0.0,93,0.00,,,0.00,Wunderground v.1.15,2013-01-16 12:26:00,
2013-01-16 07:28:00,30.3,28.5,30.07,ENE,58,0.0,0.0,93,0.00,,,0.00,Wunderground v.1.15,2013-01-16 12:28:00,
2013-01-16 07:30:00,30.3,28.5,30.07,ENE,58,1.0,1.0,93,0.00,,,0.00,Wunderground v.1.15,2013-01-16 12:30:00,
2013-01-16 07:31:00,30.3,28.5,30.07,ENE,58,0.0,1.0,93,0.00,,,0.00,Wunderground v.1.15,2013-01-16 12:31:00,
2013-01-16 07:33:00,30.3,28.5,30.07,ENE,58,0.0,1.0,93,0.00,,,0.00,Wunderground v.1.15,2013-01-16 12:33:00,
2013-01-16 07:35:00,30.3,28.5,30.07,ENE,58,0.0,1.0,93,0.00,,,0.00,Wunderground v.1.15,2013-01-16 12:35:00,
2013-01-16 07:37:00,30.3,28.5,30.07,ENE,58,0.0,1.0,93,0.00,,,0.00,Wunderground v.1.15,2013-01-16 12:37:00,
2013-01-16 07:38:00,30.3,28.5,30.07,ENE,58,0.0,1.0,93,0.00,,,0.00,Wunderground v.1.15,2013-01-16 12:38:00,
2013-01-16 07:40:00,30.3,28.5,30.07,ENE,58,0.0,0.0,93,0.00,,,0.00,Wunderground v.1.15,2013-01-16 12:40:00,
2013-01-16 07:42:00,30.3,28.5,30.07,ENE,58,0.0,0.0,93,0.00,,,0.00,Wunderground v.1.15,2013-01-16 12:42:00,
2013-01-16 07:43:00,30.3,28.5,30.08,ENE,58,3.0,3.0,93,0.00,,,0.00,Wunderground v.1.15,2013-01-16 12:43:00,
2013-01-16 07:46:00,30.3,28.5,30.08,ENE,58,2.0,3.0,93,0.00,,,0.00,Wunderground v.1.15,2013-01-16 12:46:00,
2013-01-16 07:47:00,30.3,28.5,30.08,ENE,58,3.0,3.0,93,0.00,,,0.00,Wunderground v.1.15,2013-01-16 12:47:00,
2013-01-16 07:49:00,30.3,28.5,30.09,ENE,57,2.0,3.0,93,0.00,,,0.00,Wunderground v.1.15,2013-01-16 12:49:00,
2013-01-16 07:51:00,30.3,28.5,30.09,ENE,57,0.0,1.0,93,0.00,,,0.00,Wunderground v.1.15,2013-01-16 12:51:00,
2013-01-16 07:52:00,30.3,28.5,30.09,ENE,57,0.0,1.0,93,0.00,,,0.00,Wunderground v.1.15,2013-01-16 12:52:00,
2013-01-16 07:54:00,30.3,28.5,30.09,NNE,33,2.0,4.0,93,0.00,,,0.00,Wunderground v.1.15,2013-01-16 12:54:00,
2013-01-16 07:56:00,30.3,28.5,30.09,NNE,33,1.0,4.0,93,0.00,,,0.00,Wunderground v.1.15,2013-01-16 12:56:00,
2013-01-16 07:57:00,30.3,28.5,30.09,NNE,33,0.0,4.0,93,0.00,,,0.00,Wunderground v.1.15,2013-01-16 12:57:00,
2013-01-16 07:59:00,30.3,28.5,30.09,NNE,33,0.0,4.0,93,0.00,,,0.00,Wunderground v.1.15,2013-01-16 12:59:00,
2013-01-16 08:01:00,30.3,28.5,30.09,NNE,32,0.0,2.0,93,0.00,,,0.00,Wunderground v.1.15,2013-01-16 13:01:00,
2013-01-16 08:02:00,30.3,28.5,30.09,NNE,33,2.0,2.0,93,0.00,,,0.00,Wunderground v.1.15,2013-01-16 13:02:00,
2013-01-16 08:04:00,30.3,28.5,30.09,NNE,32,0.0,2.0,93,0.00,,,0.00,Wunderground v.1.15,2013-01-16 13:04:00,
2013-01-16 08:06:00,30.3,28.5,30.10,NNE,32,2.0,3.0,93,0.00,,,0.00,Wunderground v.1.15,2013-01-16 13:06:00,
2013-01-16 08:07:00,30.3,28.5,30.10,NNE,32,1.0,3.0,93,0.00,,,0.00,Wunderground v.1.15,2013-01-16 13:07:00,
2013-01-16 08:09:00,30.3,28.5,30.09,NNE,33,0.0,3.0,93,0.00,,,0.00,Wunderground v.1.15,2013-01-16 13:09:00,
2013-01-16 08:11:00,30.4,28.6,30.09,NNE,32,0.0,1.0,93,0.00,,,0.00,Wunderground v.1.15,2013-01-16 13:11:00,
2013-01-16 08:12:00,30.3,28.5,30.09,NNE,33,0.0,1.0,93,0.00,,,0.00,Wunderground v.1.15,2013-01-16 13:12:00,
2013-01-16 08:14:00,30.4,28.4,30.10,NNE,33,0.0,1.0,92,0.00,,,0.00,Wunderground v.1.15,2013-01-16 13:14:00,
2013-01-16 08:16:00,30.4,28.4,30.10,NNE,33,0.0,1.0,92,0.00,,,0.00,Wunderground v.1.15,2013-01-16 13:16:00,
2013-01-16 08:18:00,30.4,28.4,30.10,NNE,32,0.0,1.0,92,0.00,,,0.00,Wunderground v.1.15,2013-01-16 13:18:00,
2013-01-16 08:20:00,30.4,28.4,30.11,NNE,32,0.0,0.0,92,0.00,,,0.00,Wunderground v.1.15,2013-01-16 13:20:00,
2013-01-16 08:21:00,30.4,28.4,30.11,NNE,33,0.0,0.0,92,0.00,,,0.00,Wunderground v.1.15,2013-01-16 13:21:00,
2013-01-16 08:23:00,30.4,28.4,30.11,NNE,32,0.0,0.0,92,0.00,,,0.00,Wunderground v.1.15,2013-01-16 13:23:00,
2013-01-16 08:25:00,30.4,28.4,30.11,NNE,32,2.0,2.0,92,0.00,,,0.00,Wunderground v.1.15,2013-01-16 13:25:00,
2013-01-16 08:27:00,30.4,28.4,30.11,NNE,32,0.0,2.0,92,0.00,,,0.00,Wunderground v.1.15,2013-01-16 13:27:00,
2013-01-16 08:28:00,30.5,28.5,30.11,NNE,33,0.0,2.0,92,0.00,,,0.00,Wunderground v.1.15,2013-01-16 13:28:00,
2013-01-16 08:30:00,30.5,28.5,30.11,NNE,32,2.0,3.0,92,0.00,,,0.00,Wunderground v.1.15,2013-01-16 13:30:00,
2013-01-16 08:32:00,30.5,28.5,30.11,NNE,30,1.0,4.0,92,0.00,,,0.00,Wunderground v.1.15,2013-01-16 13:32:00,
2013-01-16 08:33:00,30.5,28.5,30.11,NNE,30,0.0,4.0,92,0.00,,,0.00,Wunderground v.1.15,2013-01-16 13:33:00,
2013-01-16 08:36:00,30.5,28.5,30.11,NNE,30,0.0,4.0,92,0.00,,,0.00,Wunderground v.1.15,2013-01-16 13:36:00,
2013-01-16 08:37:00,30.5,28.5,30.11,NNE,30,2.0,4.0,92,0.00,,,0.00,Wunderground v.1.15,2013-01-16 13:37:00,
2013-01-16 08:38:00,30.5,28.5,30.11,NNE,30,2.0,4.0,92,0.00,,,0.00,Wunderground v.1.15,2013-01-16 13:38:00,
2013-01-16 08:41:00,30.5,28.5,30.11,NNE,30,0.0,1.0,92,0.00,,,0.00,Wunderground v.1.15,2013-01-16 13:41:00,
2013-01-16 08:42:00,30.5,28.5,30.11,NNE,30,0.0,1.0,92,0.00,,,0.00,Wunderground v.1.15,2013-01-16 13:42:00,
2013-01-16 08:43:00,30.5,28.5,30.11,NNE,30,0.0,1.0,92,0.00,,,0.00,Wunderground v.1.15,2013-01-16 13:43:00,
2013-01-16 08:46:00,30.5,28.5,30.12,NNE,30,1.0,1.0,92,0.00,,,0.00,Wunderground v.1.15,2013-01-16 13:46:00,
2013-01-16 08:47:00,30.5,28.5,30.12,NNE,30,0.0,2.0,92,0.00,,,0.00,Wunderground v.1.15,2013-01-16 13:47:00,
2013-01-16 08:48:00,30.5,28.5,30.12,NNE,30,0.0,2.0,92,0.00,,,0.00,Wunderground v.1.15,2013-01-16 13:48:00,
2013-01-16 08:51:00,30.5,28.5,30.12,NNE,30,2.0,3.0,92,0.00,,,0.00,Wunderground v.1.15,2013-01-16 13:51:00,
2013-01-16 08:52:00,30.5,28.5,30.12,NNE,30,0.0,3.0,92,0.00,,,0.00,Wunderground v.1.15,2013-01-16 13:52:00,
2013-01-16 08:53:00,30.6,28.6,30.12,NNE,30,2.0,3.0,92,0.00,,,0.00,Wunderground v.1.15,2013-01-16 13:53:00,
2013-01-16 08:56:00,30.6,28.6,30.12,NNE,30,0.0,3.0,92,0.00,,,0.00,Wunderground v.1.15,2013-01-16 13:56:00,
2013-01-16 08:57:00,30.6,28.6,30.12,NNE,30,0.0,3.0,92,0.00,,,0.00,Wunderground v.1.15,2013-01-16 13:57:00,
2013-01-16 08:58:00,30.6,28.6,30.12,NNE,30,0.0,3.0,92,0.00,,,0.00,Wunderground v.1.15,2013-01-16 13:58:00,
2013-01-16 09:01:00,30.6,28.6,30.12,NNE,30,0.0,0.0,92,0.00,,,0.00,Wunderground v.1.15,2013-01-16 14:01:00,
2013-01-16 09:03:00,30.6,28.6,30.12,NNE,30,0.0,0.0,92,0.00,,,0.00,Wunderground v.1.15,2013-01-16 14:03:00,
2013-01-16 09:04:00,30.7,28.7,30.12,NNE,30,0.0,0.0,92,0.00,,,0.00,Wunderground v.1.15,2013-01-16 14:04:00,
2013-01-16 09:06:00,30.7,28.7,30.12,NNE,30,0.0,2.0,92,0.00,,,0.00,Wunderground v.1.15,2013-01-16 14:06:00,
2013-01-16 09:08:00,30.7,28.7,30.13,NNE,30,0.0,2.0,92,0.00,,,0.00,Wunderground v.1.15,2013-01-16 14:08:00,
2013-01-16 09:09:00,30.7,28.7,30.13,NNE,30,0.0,2.0,92,0.00,,,0.00,Wunderground v.1.15,2013-01-16 14:09:00,
2013-01-16 09:11:00,30.7,28.7,30.13,NNE,30,0.0,0.0,92,0.00,,,0.00,Wunderground v.1.15,2013-01-16 14:11:00,
2013-01-16 09:13:00,30.7,28.7,30.13,NNE,30,0.0,0.0,92,0.00,,,0.00,Wunderground v.1.15,2013-01-16 14:13:00,
2013-01-16 09:14:00,30.8,28.8,30.13,NNE,30,0.0,0.0,92,0.00,,,0.00,Wunderground v.1.15,2013-01-16 14:14:00,
2013-01-16 09:16:00,30.7,28.7,30.13,NNE,30,0.0,2.0,92,0.00,,,0.00,Wunderground v.1.15,2013-01-16 14:16:00,
2013-01-16 09:18:00,30.8,28.8,30.13,NNE,30,0.0,2.0,92,0.00,,,0.00,Wunderground v.1.15,2013-01-16 14:18:00,
2013-01-16 09:19:00,30.8,28.8,30.13,NNE,30,0.0,2.0,92,0.00,,,0.00,Wunderground v.1.15,2013-01-16 14:19:00,
2013-01-16 09:21:00,30.8,28.8,30.13,NNE,30,0.0,0.0,92,0.00,,,0.00,Wunderground v.1.15,2013-01-16 14:21:00,
2013-01-16 09:23:00,30.8,28.5,30.13,NNE,30,0.0,0.0,91,0.00,,,0.00,Wunderground v.1.15,2013-01-16 14:23:00,
2013-01-16 09:24:00,30.8,28.5,30.13,NNE,30,0.0,0.0,91,0.00,,,0.00,Wunderground v.1.15,2013-01-16 14:24:00,
2013-01-16 09:26:00,30.8,28.5,30.13,NNE,30,0.0,0.0,91,0.00,,,0.00,Wunderground v.1.15,2013-01-16 14:26:00,
2013-01-16 09:29:00,30.9,28.6,30.14,NNE,30,1.0,2.0,91,0.00,,,0.00,Wunderground v.1.15,2013-01-16 14:29:00,
2013-01-16 09:31:00,30.9,28.6,30.14,NNE,30,0.0,2.0,91,0.00,,,0.00,Wunderground v.1.15,2013-01-16 14:31:00,
2013-01-16 09:34:00,30.9,28.6,30.14,NNE,30,0.0,2.0,91,0.00,,,0.00,Wunderground v.1.15,2013-01-16 14:34:00,
2013-01-16 09:35:00,30.9,28.6,30.14,NNE,30,0.0,2.0,91,0.00,,,0.00,Wunderground v.1.15,2013-01-16 14:35:00,
2013-01-16 09:37:00,30.9,28.6,30.14,NNE,30,0.0,2.0,91,0.00,,,0.00,Wunderground v.1.15,2013-01-16 14:37:00,
2013-01-16 09:39:00,31.0,28.7,30.14,NNE,30,0.0,2.0,91,0.00,,,0.00,Wunderground v.1.15,2013-01-16 14:39:00,
2013-01-16 09:40:00,31.0,28.7,30.14,NNE,30,0.0,0.0,91,0.00,,,0.00,Wunderground v.1.15,2013-01-16 14:40:00,
2013-01-16 09:41:00,31.0,28.7,30.14,NNE,30,0.0,0.0,91,0.00,,,0.00,Wunderground v.1.15,2013-01-16 14:41:00,
2013-01-16 09:44:00,31.1,28.8,30.13,NNE,30,0.0,0.0,91,0.00,,,0.00,Wunderground v.1.15,2013-01-16 14:44:00,
2013-01-16 09:45:00,31.1,28.8,30.14,NNE,30,0.0,0.0,91,0.00,,,0.00,Wunderground v.1.15,2013-01-16 14:45:00,
2013-01-16 09:47:00,31.1,28.8,30.14,NNE,30,0.0,0.0,91,0.00,,,0.00,Wunderground v.1.15,2013-01-16 14:47:00,
2013-01-16 09:49:00,31.1,28.8,30.14,NNE,30,0.0,0.0,91,0.00,,,0.00,Wunderground v.1.15,2013-01-16 14:49:00,
2013-01-16 09:50:00,31.2,28.9,30.14,NNE,30,0.0,0.0,91,0.00,,,0.00,Wunderground v.1.15,2013-01-16 14:50:00,
2013-01-16 09:52:00,31.2,28.9,30.14,NNE,30,0.0,1.0,91,0.00,,,0.00,Wunderground v.1.15,2013-01-16 14:52:00,
2013-01-16 09:54:00,31.2,28.9,30.14,NNE,30,0.0,1.0,91,0.00,,,0.00,Wunderground v.1.15,2013-01-16 14:54:00,
2013-01-16 09:55:00,31.2,28.9,30.14,NNE,30,0.0,1.0,91,0.00,,,0.00,Wunderground v.1.15,2013-01-16 14:55:00,
2013-01-16 09:56:00,31.2,28.9,30.14,NNE,30,0.0,1.0,91,0.00,,,0.00,Wunderground v.1.15,2013-01-16 14:56:00,
2013-01-16 09:57:00,31.2,28.9,30.14,NNE,30,0.0,1.0,91,0.00,,,0.00,Wunderground v.1.15,2013-01-16 14:57:00,
2013-01-16 09:59:00,31.2,28.9,30.14,NNE,30,0.0,1.0,91,0.00,,,0.00,Wunderground v.1.15,2013-01-16 14:59:00,
2013-01-16 10:00:00,31.2,28.9,30.14,NNE,30,0.0,0.0,91,0.00,,,0.00,Wunderground v.1.15,2013-01-16 15:00:00,
2013-01-16 10:01:00,31.2,28.9,30.14,NNE,27,2.0,2.0,91,0.00,,,0.00,Wunderground v.1.15,2013-01-16 15:01:00,
2013-01-16 10:02:00,31.2,28.9,30.14,NNE,27,0.0,2.0,91,0.00,,,0.00,Wunderground v.1.15,2013-01-16 15:02:00,
2013-01-16 10:04:00,31.2,28.6,30.14,NNE,19,1.0,4.0,90,0.00,,,0.00,Wunderground v.1.15,2013-01-16 15:04:00,
2013-01-16 10:05:00,31.2,28.9,30.14,NNE,20,0.0,4.0,91,0.00,,,0.00,Wunderground v.1.15,2013-01-16 15:05:00,
2013-01-16 10:06:00,31.2,28.9,30.14,NNE,15,3.0,4.0,91,0.00,,,0.00,Wunderground v.1.15,2013-01-16 15:06:00,
2013-01-16 10:07:00,31.2,28.6,30.14,NNE,15,1.0,4.0,90,0.00,,,0.00,Wunderground v.1.15,2013-01-16 15:07:00,
2013-01-16 10:09:00,31.2,28.6,30.14,NNE,15,0.0,4.0,90,0.00,,,0.00,Wunderground v.1.15,2013-01-16 15:09:00,
2013-01-16 10:11:00,31.2,28.6,30.14,NNE,15,0.0,1.0,90,0.00,,,0.00,Wunderground v.1.15,2013-01-16 15:11:00,
2013-01-16 10:12:00,31.2,28.6,30.14,NNE,15,0.0,1.0,90,0.00,,,0.00,Wunderground v.1.15,2013-01-16 15:12:00,
2013-01-16 10:14:00,31.2,28.6,30.14,NNE,15,0.0,1.0,90,0.00,,,0.00,Wunderground v.1.15,2013-01-16 15:14:00,
2013-01-16 10:16:00,31.3,28.7,30.13,NNE,15,0.0,1.0,90,0.00,,,0.00,Wunderground v.1.15,2013-01-16 15:16:00,
2013-01-16 10:17:00,31.3,28.7,30.14,NNE,15,0.0,1.0,90,0.00,,,0.00,Wunderground v.1.15,2013-01-16 15:17:00,
2013-01-16 10:20:00,31.3,28.7,30.14,NNE,15,1.0,1.0,90,0.00,,,0.00,Wunderground v.1.15,2013-01-16 15:20:00,
2013-01-16 10:21:00,31.3,28.7,30.13,NNE,15,0.0,1.0,90,0.00,,,0.00,Wunderground v.1.15,2013-01-16 15:21:00,
2013-01-16 10:22:00,31.3,28.7,30.13,NNE,15,0.0,1.0,90,0.00,,,0.00,Wunderground v.1.15,2013-01-16 15:22:00,
2013-01-16 10:23:00,31.3,28.7,30.13,NNE,15,1.0,3.0,90,0.00,,,0.00,Wunderground v.1.15,2013-01-16 15:23:00,
2013-01-16 10:25:00,31.3,28.7,30.13,NNE,15,0.0,3.0,90,0.00,,,0.00,Wunderground v.1.15,2013-01-16 15:25:00,
2013-01-16 10:26:00,31.3,28.7,30.13,NNE,15,0.0,3.0,90,0.00,,,0.00,Wunderground v.1.15,2013-01-16 15:26:00,
2013-01-16 10:27:00,31.3,28.7,30.13,NNE,15,0.0,3.0,90,0.00,,,0.00,Wunderground v.1.15,2013-01-16 15:27:00,
2013-01-16 10:28:00,31.4,28.8,30.13,NNE,15,0.0,3.0,90,0.00,,,0.00,Wunderground v.1.15,2013-01-16 15:28:00,
2013-01-16 10:30:00,31.4,28.8,30.12,NNE,15,0.0,0.0,90,0.00,,,0.00,Wunderground v.1.15,2013-01-16 15:30:00,
2013-01-16 10:32:00,31.4,28.8,30.13,NNE,15,2.0,3.0,90,0.00,,,0.00,Wunderground v.1.15,2013-01-16 15:32:00,
2013-01-16 10:33:00,31.4,28.8,30.13,NNE,15,1.0,3.0,90,0.00,,,0.00,Wunderground v.1.15,2013-01-16 15:33:00,
2013-01-16 10:36:00,31.5,28.9,30.13,NNE,15,0.0,3.0,90,0.00,,,0.00,Wunderground v.1.15,2013-01-16 15:36:00,
2013-01-16 10:37:00,31.5,28.9,30.13,NNE,13,2.0,3.0,90,0.00,,,0.00,Wunderground v.1.15,2013-01-16 15:37:00,
2013-01-16 10:38:00,31.5,28.9,30.13,NNE,13,0.0,3.0,90,0.00,,,0.00,Wunderground v.1.15,2013-01-16 15:38:00,
2013-01-16 10:40:00,31.5,28.9,30.13,NNE,13,0.0,1.0,90,0.00,,,0.00,Wunderground v.1.15,2013-01-16 15:40:00,
2013-01-16 10:42:00,31.5,28.9,30.13,NNE,13,0.0,4.0,90,0.00,,,0.00,Wunderground v.1.15,2013-01-16 15:42:00,
2013-01-16 10:44:00,31.5,28.9,30.13,NNE,13,2.0,4.0,90,0.00,,,0.00,Wunderground v.1.15,2013-01-16 15:44:00,
2013-01-16 10:46:00,31.5,28.9,30.13,NNE,13,0.0,4.0,90,0.00,,,0.00,Wunderground v.1.15,2013-01-16 15:46:00,
2013-01-16 10:47:00,31.6,29.0,30.13,NNE,13,0.0,4.0,90,0.00,,,0.00,Wunderground v.1.15,2013-01-16 15:47:00,
2013-01-16 10:49:00,31.6,29.0,30.12,NNE,13,0.0,4.0,90,0.00,,,0.00,Wunderground v.1.15,2013-01-16 15:49:00,
2013-01-16 10:51:00,31.6,29.0,30.12,NNE,13,0.0,1.0,90,0.00,,,0.00,Wunderground v.1.15,2013-01-16 15:51:00,
2013-01-16 10:52:00,31.6,29.0,30.12,NNE,13,0.0,2.0,90,0.00,,,0.00,Wunderground v.1.15,2013-01-16 15:52:00,
2013-01-16 10:54:00,31.6,29.0,30.12,NNE,13,0.0,2.0,90,0.00,,,0.00,Wunderground v.1.15,2013-01-16 15:54:00,
2013-01-16 10:56:00,31.6,28.7,30.12,North,11,2.0,3.0,89,0.00,,,0.00,Wunderground v.1.15,2013-01-16 15:56:00,
2013-01-16 10:57:00,31.6,28.7,30.12,North,11,0.0,3.0,89,0.00,,,0.00,Wunderground v.1.15,2013-01-16 15:57:00,
2013-01-16 10:59:00,31.5,28.6,30.12,North,3,4.0,4.0,89,0.00,,,0.00,Wunderground v.1.15,2013-01-16 15:59:00,
2013-01-16 11:01:00,31.5,28.6,30.12,NNW,347,0.0,4.0,89,0.00,,,0.00,Wunderground v.1.15,2013-01-16 16:01:00,
2013-01-16 11:02:00,31.5,28.6,30.11,NNW,346,0.0,4.0,89,0.00,,,0.00,Wunderground v.1.15,2013-01-16 16:02:00,
2013-01-16 11:03:00,31.5,28.6,30.11,NNW,347,1.0,4.0,89,0.00,,,0.00,Wunderground v.1.15,2013-01-16 16:03:00,
2013-01-16 11:04:00,31.5,28.6,30.11,NNW,347,0.0,4.0,89,0.00,,,0.00,Wunderground v.1.15,2013-01-16 16:04:00,
2013-01-16 11:07:00,31.5,28.6,30.10,NNW,346,0.0,4.0,89,0.00,,,0.00,Wunderground v.1.15,2013-01-16 16:07:00,
2013-01-16 11:08:00,31.5,28.6,30.10,NNW,346,0.0,4.0,89,0.00,,,0.00,Wunderground v.1.15,2013-01-16 16:08:00,
2013-01-16 11:10:00,31.6,28.7,30.10,NNW,346,1.0,2.0,89,0.00,,,0.00,Wunderground v.1.15,2013-01-16 16:10:00,
2013-01-16 11:12:00,31.6,28.7,30.10,NNW,344,2.0,4.0,89,0.00,,,0.00,Wunderground v.1.15,2013-01-16 16:12:00,
2013-01-16 11:13:00,31.6,28.7,30.10,NNW,344,0.0,4.0,89,0.00,,,0.00,Wunderground v.1.15,2013-01-16 16:13:00,
2013-01-16 11:15:00,31.6,28.7,30.11,NNW,338,2.0,4.0,89,0.00,,,0.00,Wunderground v.1.15,2013-01-16 16:15:00,
2013-01-16 11:17:00,31.6,28.7,30.11,NNW,334,3.0,4.0,89,0.00,,,0.00,Wunderground v.1.15,2013-01-16 16:17:00,
2013-01-16 11:18:00,31.6,28.7,30.11,NW,326,1.0,4.0,89,0.00,,,0.00,Wunderground v.1.15,2013-01-16 16:18:00,
2013-01-16 11:21:00,31.6,28.7,30.11,WNW,298,2.0,5.0,89,0.00,,,0.00,Wunderground v.1.15,2013-01-16 16:21:00,
2013-01-16 11:22:00,31.6,28.7,30.11,WNW,298,2.0,5.0,89,0.00,,,0.00,Wunderground v.1.15,2013-01-16 16:22:00,
2013-01-16 11:23:00,31.7,28.8,30.10,WNW,298,0.0,5.0,89,0.00,,,0.00,Wunderground v.1.15,2013-01-16 16:23:00,
2013-01-16 11:26:00,31.7,28.8,30.10,WNW,298,0.0,5.0,89,0.00,,,0.00,Wunderground v.1.15,2013-01-16 16:26:00,
2013-01-16 11:27:00,31.7,28.8,30.10,WNW,298,0.0,5.0,89,0.00,,,0.00,Wunderground v.1.15,2013-01-16 16:27:00,
2013-01-16 11:28:00,31.7,28.8,30.10,WNW,298,0.0,5.0,89,0.00,,,0.00,Wunderground v.1.15,2013-01-16 16:28:00,
2013-01-16 11:31:00,31.7,29.1,30.11,WNW,298,0.0,2.0,90,0.00,,,0.00,Wunderground v.1.15,2013-01-16 16:31:00,
2013-01-16 11:32:00,31.7,29.1,30.11,WNW,298,0.0,2.0,90,0.00,,,0.00,Wunderground v.1.15,2013-01-16 16:32:00,
2013-01-16 11:33:00,31.8,28.9,30.11,WNW,298,1.0,3.0,89,0.00,,,0.00,Wunderground v.1.15,2013-01-16 16:33:00,
2013-01-16 11:34:00,31.8,28.9,30.11,WNW,298,0.0,3.0,89,0.00,,,0.00,Wunderground v.1.15,2013-01-16 16:34:00,
2013-01-16 11:36:00,31.7,28.8,30.11,WNW,298,2.0,4.0,89,0.00,,,0.00,Wunderground v.1.15,2013-01-16 16:36:00,
2013-01-16 11:37:00,31.7,28.8,30.11,WNW,298,1.0,4.0,89,0.00,,,0.00,Wunderground v.1.15,2013-01-16 16:37:00,
2013-01-16 11:39:00,31.8,28.9,30.11,WNW,298,0.0,4.0,89,0.00,,,0.00,Wunderground v.1.15,2013-01-16 16:39:00,
2013-01-16 11:42:00,31.8,28.9,30.10,WNW,298,2.0,3.0,89,0.00,,,0.00,Wunderground v.1.15,2013-01-16 16:42:00,
2013-01-16 11:44:00,31.8,28.9,30.11,WNW,297,1.0,3.0,89,0.00,,,0.00,Wunderground v.1.15,2013-01-16 16:44:00,
2013-01-16 11:47:00,31.8,28.9,30.11,WNW,297,2.0,3.0,89,0.00,,,0.00,Wunderground v.1.15,2013-01-16 16:47:00,
2013-01-16 11:49:00,31.8,28.9,30.11,WNW,297,1.0,3.0,89,0.00,,,0.00,Wunderground v.1.15,2013-01-16 16:49:00,
2013-01-16 11:52:00,31.8,28.9,30.10,WNW,296,2.0,2.0,89,0.00,,,0.00,Wunderground v.1.15,2013-01-16 16:52:00,
2013-01-16 11:53:00,31.8,28.9,30.11,WNW,297,3.0,3.0,89,0.00,,,0.00,Wunderground v.1.15,2013-01-16 16:53:00,
2013-01-16 11:54:00,31.8,28.9,30.11,WNW,294,0.0,5.0,89,0.00,,,0.00,Wunderground v.1.15,2013-01-16 16:54:00,
2013-01-16 11:57:00,31.8,28.9,30.11,WNW,292,3.0,5.0,89,0.00,,,0.00,Wunderground v.1.15,2013-01-16 16:57:00,
2013-01-16 11:58:00,31.8,28.9,30.11,WNW,290,3.0,5.0,89,0.00,,,0.00,Wunderground v.1.15,2013-01-16 16:58:00,
2013-01-16 11:59:00,31.8,28.9,30.11,WNW,290,3.0,5.0,89,0.00,,,0.00,Wunderground v.1.15,2013-01-16 16:59:00,
2013-01-16 12:00:00,31.8,28.9,30.11,WNW,289,2.0,5.0,89,0.00,,,0.00,Wunderground v.1.15,2013-01-16 17:00:00,
2013-01-16 12:02:00,31.8,28.9,30.11,WNW,288,3.0,4.0,89,0.00,,,0.00,Wunderground v.1.15,2013-01-16 17:02:00,
2013-01-16 12:03:00,31.8,28.9,30.11,WNW,288,1.0,4.0,89,0.00,,,0.00,Wunderground v.1.15,2013-01-16 17:03:00,
2013-01-16 12:04:00,31.8,28.9,30.11,WNW,287,2.0,4.0,89,0.00,,,0.00,Wunderground v.1.15,2013-01-16 17:04:00,
2013-01-16 12:05:00,31.9,29.0,30.11,WNW,287,0.0,4.0,89,0.00,,,0.00,Wunderground v.1.15,2013-01-16 17:05:00,
2013-01-16 12:07:00,31.9,29.0,30.11,WNW,287,0.0,4.0,89,0.00,,,0.00,Wunderground v.1.15,2013-01-16 17:07:00,
2013-01-16 12:08:00,31.9,29.0,30.10,WNW,288,2.0,4.0,89,0.00,,,0.00,Wunderground v.1.15,2013-01-16 17:08:00,
2013-01-16 12:09:00,31.9,29.3,30.10,WNW,288,2.0,4.0,90,0.00,,,0.00,Wunderground v.1.15,2013-01-16 17:09:00,
2013-01-16 12:10:00,31.9,29.3,30.10,WNW,287,0.0,2.0,90,0.00,,,0.00,Wunderground v.1.15,2013-01-16 17:10:00,
2013-01-16 12:12:00,31.9,29.0,30.10,WNW,288,0.0,2.0,89,0.00,,,0.00,Wunderground v.1.15,2013-01-16 17:12:00,
2013-01-16 12:13:00,32.0,29.4,30.10,WNW,288,0.0,2.0,90,0.00,,,0.00,Wunderground v.1.15,2013-01-16 17:13:00,
2013-01-16 12:14:00,32.0,29.4,30.10,WNW,287,2.0,4.0,90,0.00,,,0.00,Wunderground v.1.15,2013-01-16 17:14:00,
2013-01-16 12:15:00,32.0,29.4,30.10,WNW,288,2.0,4.0,90,0.00,,,0.00,Wunderground v.1.15,2013-01-16 17:15:00,
2013-01-16 12:17:00,32.0,29.1,30.10,WNW,287,1.0,4.0,89,0.00,,,0.00,Wunderground v.1.15,2013-01-16 17:17:00,
2013-01-16 12:18:00,32.0,29.1,30.10,WNW,287,1.0,4.0,89,0.00,,,0.00,Wunderground v.1.15,2013-01-16 17:18:00,
2013-01-16 12:19:00,32.0,29.1,30.10,WNW,287,0.0,4.0,89,0.00,,,0.00,Wunderground v.1.15,2013-01-16 17:19:00,
2013-01-16 12:20:00,32.0,29.1,30.09,WNW,288,0.0,1.0,89,0.00,,,0.00,Wunderground v.1.15,2013-01-16 17:20:00,
2013-01-16 12:23:00,32.1,29.2,30.09,WNW,287,0.0,2.0,89,0.00,,,0.00,Wunderground v.1.15,2013-01-16 17:23:00,
2013-01-16 12:24:00,32.1,29.2,30.09,WNW,287,0.0,2.0,89,0.00,,,0.00,Wunderground v.1.15,2013-01-16 17:24:00,
2013-01-16 12:25:00,32.1,29.2,30.10,WNW,287,0.0,3.0,89,0.00,,,0.00,Wunderground v.1.15,2013-01-16 17:25:00,
2013-01-16 12:28:00,32.1,29.2,30.09,WNW,287,1.0,3.0,89,0.00,,,0.00,Wunderground v.1.15,2013-01-16 17:28:00,
2013-01-16 12:29:00,32.1,29.2,30.09,WNW,287,2.0,3.0,89,0.00,,,0.00,Wunderground v.1.15,2013-01-16 17:29:00,
2013-01-16 12:30:00,32.1,28.9,30.09,WNW,282,3.0,5.0,88,0.00,,,0.00,Wunderground v.1.15,2013-01-16 17:30:00,
2013-01-16 12:33:00,32.1,28.9,30.09,WNW,282,3.0,5.0,88,0.00,,,0.00,Wunderground v.1.15,2013-01-16 17:33:00,
2013-01-16 12:34:00,32.1,28.7,30.09,West,276,2.0,5.0,87,0.00,,,0.00,Wunderground v.1.15,2013-01-16 17:34:00,
2013-01-16 12:35:00,32.0,28.6,30.09,West,275,2.0,5.0,87,0.00,,,0.00,Wunderground v.1.15,2013-01-16 17:35:00,
2013-01-16 12:36:00,32.0,28.6,30.09,West,276,3.0,5.0,87,0.00,,,0.00,Wunderground v.1.15,2013-01-16 17:36:00,
2013-01-16 12:38:00,32.0,28.8,30.09,West,275,3.0,5.0,88,0.00,,,0.00,Wunderground v.1.15,2013-01-16 17:38:00,
2013-01-16 12:39:00,32.0,28.8,30.09,West,275,0.0,5.0,88,0.00,,,0.00,Wunderground v.1.15,2013-01-16 17:39:00,
2013-01-16 12:40:00,32.0,28.8,30.09,West,276,0.0,5.0,88,0.00,,,0.00,Wunderground v.1.15,2013-01-16 17:40:00,
2013-01-16 12:41:00,32.0,28.8,30.09,West,276,1.0,2.0,88,0.00,,,0.00,Wunderground v.1.15,2013-01-16 17:41:00,
2013-01-16 12:44:00,32.1,28.9,30.09,West,276,1.0,3.0,88,0.00,,,0.00,Wunderground v.1.15,2013-01-16 17:44:00,
2013-01-16 12:45:00,32.1,28.9,30.09,West,276,3.0,3.0,88,0.00,,,0.00,Wunderground v.1.15,2013-01-16 17:45:00,
2013-01-16 12:46:00,32.1,28.9,30.09,West,276,0.0,3.0,88,0.00,,,0.00,Wunderground v.1.15,2013-01-16 17:46:00,
2013-01-16 12:49:00,32.2,29.0,30.09,West,276,0.0,3.0,88,0.00,,,0.00,Wunderground v.1.15,2013-01-16 17:49:00,
2013-01-16 12:50:00,32.2,29.0,30.09,West,276,0.0,1.0,88,0.00,,,0.00,Wunderground v.1.15,2013-01-16 17:50:00,
2013-01-16 12:51:00,32.2,29.0,30.09,West,276,0.0,1.0,88,0.00,,,0.00,Wunderground v.1.15,2013-01-16 17:51:00,
2013-01-16 12:54:00,32.3,29.1,30.09,West,276,2.0,3.0,88,0.00,,,0.00,Wunderground v.1.15,2013-01-16 17:54:00,
2013-01-16 12:55:00,32.3,29.1,30.09,West,275,2.0,4.0,88,0.00,,,0.00,Wunderground v.1.15,2013-01-16 17:55:00,
2013-01-16 12:56:00,32.3,29.1,30.09,West,276,2.0,4.0,88,0.00,,,0.00,Wunderground v.1.15,2013-01-16 17:56:00,
2013-01-16 12:59:00,32.3,28.9,30.09,West,276,2.0,5.0,87,0.00,,,0.00,Wunderground v.1.15,2013-01-16 17:59:00,
2013-01-16 13:00:00,32.3,28.9,30.09,West,276,0.0,2.0,87,0.00,,,0.00,Wunderground v.1.15,2013-01-16 18:00:00,
2013-01-16 13:02:00,32.3,28.9,30.09,West,275,2.0,3.0,87,0.00,,,0.00,Wunderground v.1.15,2013-01-16 18:02:00,
2013-01-16 13:04:00,32.3,28.9,30.09,West,276,3.0,3.0,87,0.00,,,0.00,Wunderground v.1.15,2013-01-16 18:04:00,
2013-01-16 13:05:00,32.4,29.0,30.09,West,276,2.0,3.0,87,0.00,,,0.00,Wunderground v.1.15,2013-01-16 18:05:00,
2013-01-16 13:06:00,32.4,29.0,30.09,West,275,2.0,5.0,87,0.00,,,0.00,Wunderground v.1.15,2013-01-16 18:06:00,
2013-01-16 13:07:00,32.4,29.0,30.08,West,275,2.0,5.0,87,0.00,,,0.00,Wunderground v.1.15,2013-01-16 18:07:00,
2013-01-16 13:09:00,32.4,29.0,30.08,West,275,1.0,5.0,87,0.00,,,0.00,Wunderground v.1.15,2013-01-16 18:09:00,
2013-01-16 13:10:00,32.4,29.0,30.08,West,275,2.0,3.0,87,0.00,,,0.00,Wunderground v.1.15,2013-01-16 18:10:00,
2013-01-16 13:11:00,32.4,29.0,30.08,West,275,3.0,3.0,87,0.00,,,0.00,Wunderground v.1.15,2013-01-16 18:11:00,
2013-01-16 13:12:00,32.4,29.0,30.09,West,275,2.0,3.0,87,0.00,,,0.00,Wunderground v.1.15,2013-01-16 18:12:00,
2013-01-16 13:14:00,32.4,29.0,30.09,West,275,1.0,3.0,87,0.00,,,0.00,Wunderground v.1.15,2013-01-16 18:14:00,
2013-01-16 13:15:00,32.5,29.1,30.08,West,275,0.0,3.0,87,0.00,,,0.00,Wunderground v.1.15,2013-01-16 18:15:00,
2013-01-16 13:16:00,32.5,29.1,30.08,West,275,3.0,4.0,87,0.00,,,0.00,Wunderground v.1.15,2013-01-16 18:16:00,
2013-01-16 13:17:00,32.5,29.1,30.09,West,275,1.0,4.0,87,0.00,,,0.00,Wunderground v.1.15,2013-01-16 18:17:00,
2013-01-16 13:19:00,32.5,29.1,30.09,West,274,5.0,5.0,87,0.00,,,0.00,Wunderground v.1.15,2013-01-16 18:19:00,
2013-01-16 13:21:00,32.5,29.1,30.09,West,274,5.0,5.0,87,0.00,,,0.01,Wunderground v.1.15,2013-01-16 18:21:00,
2013-01-16 13:23:00,32.5,28.8,30.09,West,274,3.0,5.0,86,0.00,,,0.01,Wunderground v.1.15,2013-01-16 18:23:00,
2013-01-16 13:25:00,32.5,28.8,30.09,West,274,3.0,5.0,86,0.00,,,0.01,Wunderground v.1.15,2013-01-16 18:25:00,
2013-01-16 13:26:00,32.5,29.1,30.08,West,274,1.0,5.0,87,0.00,,,0.01,Wunderground v.1.15,2013-01-16 18:26:00,
2013-01-16 13:28:00,32.5,28.8,30.09,West,274,1.0,5.0,86,0.00,,,0.01,Wunderground v.1.15,2013-01-16 18:28:00,
2013-01-16 13:30:00,32.6,29.2,30.08,West,274,1.0,2.0,87,0.00,,,0.01,Wunderground v.1.15,2013-01-16 18:30:00,
2013-01-16 13:31:00,32.6,29.2,30.08,West,274,0.0,2.0,87,0.00,,,0.01,Wunderground v.1.15,2013-01-16 18:31:00,
2013-01-16 13:32:00,32.7,29.3,30.08,West,274,0.0,2.0,87,0.00,,,0.01,Wunderground v.1.15,2013-01-16 18:32:00,
2013-01-16 13:33:00,32.8,29.4,30.08,West,274,4.0,4.0,87,0.00,,,0.01,Wunderground v.1.15,2013-01-16 18:33:00,
2013-01-16 13:35:00,32.8,29.4,30.08,West,274,4.0,4.0,87,0.00,,,0.01,Wunderground v.1.15,2013-01-16 18:35:00,
2013-01-16 13:36:00,32.8,29.1,30.07,West,274,0.0,4.0,86,0.00,,,0.01,Wunderground v.1.15,2013-01-16 18:36:00,
2013-01-16 13:37:00,32.8,29.1,30.07,West,274,0.0,4.0,86,0.00,,,0.01,Wunderground v.1.15,2013-01-16 18:37:00,
2013-01-16 13:38:00,32.8,29.1,30.07,West,274,0.0,4.0,86,0.00,,,0.01,Wunderground v.1.15,2013-01-16 18:38:00,
2013-01-16 13:40:00,32.8,29.1,30.08,West,274,3.0,4.0,86,0.00,,,0.01,Wunderground v.1.15,2013-01-16 18:40:00,
2013-01-16 13:42:00,32.9,29.2,30.08,West,274,3.0,4.0,86,0.00,,,0.01,Wunderground v.1.15,2013-01-16 18:42:00,
2013-01-16 13:43:00,32.9,29.5,30.08,West,274,5.0,5.0,87,0.00,,,0.01,Wunderground v.1.15,2013-01-16 18:43:00,
2013-01-16 13:45:00,33.0,29.6,30.08,West,272,3.0,6.0,87,0.00,,,0.01,Wunderground v.1.15,2013-01-16 18:45:00,
2013-01-16 13:47:00,33.0,29.6,30.09,West,271,6.0,6.0,87,0.00,,,0.01,Wunderground v.1.15,2013-01-16 18:47:00,
2013-01-16 13:48:00,33.0,29.6,30.09,West,271,2.0,6.0,87,0.00,,,0.01,Wunderground v.1.15,2013-01-16 18:48:00,
2013-01-16 13:50:00,33.0,29.6,30.09,West,271,1.0,4.0,87,0.00,,,0.01,Wunderground v.1.15,2013-01-16 18:50:00,
2013-01-16 13:52:00,33.0,29.6,30.08,West,271,0.0,4.0,87,0.00,,,0.01,Wunderground v.1.15,2013-01-16 18:52:00,
2013-01-16 13:53:00,33.1,29.7,30.08,West,271,4.0,4.0,87,0.00,,,0.01,Wunderground v.1.15,2013-01-16 18:53:00,
2013-01-16 13:54:00,33.1,29.7,30.08,West,271,2.0,4.0,87,0.00,,,0.01,Wunderground v.1.15,2013-01-16 18:54:00,
2013-01-16 13:55:00,33.0,29.6,30.08,West,271,4.0,5.0,87,0.00,,,0.02,Wunderground v.1.15,2013-01-16 18:55:00,
2013-01-16 13:57:00,33.0,29.6,30.08,West,271,2.0,5.0,87,0.00,,,0.02,Wunderground v.1.15,2013-01-16 18:57:00,
2013-01-16 13:58:00,33.0,29.6,30.08,West,271,1.0,5.0,87,0.00,,,0.02,Wunderground v.1.15,2013-01-16 18:58:00,
2013-01-16 13:59:00,33.0,29.6,30.08,West,271,2.0,5.0,87,0.00,,,0.02,Wunderground v.1.15,2013-01-16 18:59:00,
2013-01-16 14:01:00,33.0,29.6,30.08,West,275,0.0,2.0,87,0.00,,,0.02,Wunderground v.1.15,2013-01-16 19:01:00,
2013-01-16 14:03:00,33.0,29.6,30.08,WNW,284,2.0,5.0,87,0.00,,,0.02,Wunderground v.1.15,2013-01-16 19:03:00,
2013-01-16 14:04:00,33.0,29.6,30.08,WNW,284,0.0,5.0,87,0.00,,,0.02,Wunderground v.1.15,2013-01-16 19:04:00,
2013-01-16 14:06:00,33.0,29.6,30.08,West,280,4.0,5.0,87,0.00,,,0.02,Wunderground v.1.15,2013-01-16 19:06:00,
2013-01-16 14:08:00,33.0,29.6,30.07,West,280,3.0,5.0,87,0.00,,,0.02,Wunderground v.1.15,2013-01-16 19:08:00,
2013-01-16 14:09:00,33.0,29.6,30.07,West,280,4.0,5.0,87,0.00,,,0.02,Wunderground v.1.15,2013-01-16 19:09:00,
2013-01-16 14:11:00,32.9,29.5,30.07,West,279,5.0,5.0,87,0.00,,,0.02,Wunderground v.1.15,2013-01-16 19:11:00,
2013-01-16 14:13:00,33.0,29.6,30.07,West,265,4.0,6.0,87,0.00,,,0.02,Wunderground v.1.15,2013-01-16 19:13:00,
2013-01-16 14:14:00,33.0,29.6,30.06,West,265,1.0,6.0,87,0.00,,,0.02,Wunderground v.1.15,2013-01-16 19:14:00,
2013-01-16 14:17:00,33.0,29.6,30.07,West,265,2.0,6.0,87,0.00,,,0.02,Wunderground v.1.15,2013-01-16 19:17:00,
2013-01-16 14:18:00,33.0,29.6,30.07,West,265,0.0,6.0,87,0.00,,,0.02,Wunderground v.1.15,2013-01-16 19:18:00,
2013-01-16 14:19:00,33.0,29.6,30.07,West,265,0.0,6.0,87,0.00,,,0.02,Wunderground v.1.15,2013-01-16 19:19:00,
2013-01-16 14:22:00,33.0,29.6,30.07,West,266,1.0,4.0,87,0.00,,,0.02,Wunderground v.1.15,2013-01-16 19:22:00,
2013-01-16 14:23:00,33.0,29.6,30.07,West,266,3.0,4.0,87,0.00,,,0.02,Wunderground v.1.15,2013-01-16 19:23:00,
2013-01-16 14:24:00,33.0,29.6,30.07,West,265,4.0,4.0,87,0.00,,,0.02,Wunderground v.1.15,2013-01-16 19:24:00,
2013-01-16 14:27:00,33.1,29.7,30.07,West,265,3.0,4.0,87,0.00,,,0.02,Wunderground v.1.15,2013-01-16 19:27:00,
2013-01-16 14:29:00,33.1,29.7,30.07,West,266,0.0,4.0,87,0.00,,,0.02,Wunderground v.1.15,2013-01-16 19:29:00,
2013-01-16 14:30:00,33.1,29.7,30.08,West,266,3.0,4.0,87,0.00,,,0.02,Wunderground v.1.15,2013-01-16 19:30:00,
2013-01-16 14:32:00,33.2,29.8,30.07,West,266,2.0,3.0,87,0.00,,,0.02,Wunderground v.1.15,2013-01-16 19:32:00,
2013-01-16 14:34:00,33.2,29.8,30.07,West,265,0.0,3.0,87,0.00,,,0.02,Wunderground v.1.15,2013-01-16 19:34:00,
2013-01-16 14:35:00,33.2,29.8,30.07,West,266,0.0,3.0,87,0.00,,,0.02,Wunderground v.1.15,2013-01-16 19:35:00,
2013-01-16 14:37:00,33.3,30.1,30.07,West,266,0.0,3.0,88,0.00,,,0.03,Wunderground v.1.15,2013-01-16 19:37:00,
2013-01-16 14:39:00,33.3,30.1,30.07,West,266,3.0,3.0,88,0.00,,,0.03,Wunderground v.1.15,2013-01-16 19:39:00,
2013-01-16 14:40:00,33.3,30.1,30.07,West,266,1.0,3.0,88,0.00,,,0.03,Wunderground v.1.15,2013-01-16 19:40:00,
2013-01-16 14:42:00,33.3,29.8,30.07,West,265,1.0,3.0,87,0.00,,,0.03,Wunderground v.1.15,2013-01-16 19:42:00,
2013-01-16 14:44:00,33.3,29.8,30.07,West,266,2.0,3.0,87,0.00,,,0.03,Wunderground v.1.15,2013-01-16 19:44:00,
2013-01-16 14:45:00,33.3,30.1,30.08,West,265,3.0,4.0,88,0.00,,,0.03,Wunderground v.1.15,2013-01-16 19:45:00,
2013-01-16 14:48:00,33.3,29.8,30.08,West,266,3.0,4.0,87,0.00,,,0.03,Wunderground v.1.15,2013-01-16 19:48:00,
2013-01-16 14:49:00,33.3,29.8,30.08,West,264,2.0,5.0,87,0.00,,,0.03,Wunderground v.1.15,2013-01-16 19:49:00,
2013-01-16 14:51:00,33.3,30.1,30.09,WSW,254,3.0,5.0,88,0.00,,,0.03,Wunderground v.1.15,2013-01-16 19:51:00,
2013-01-16 14:53:00,33.3,30.1,30.09,WSW,252,5.0,6.0,88,0.00,,,0.03,Wunderground v.1.15,2013-01-16 19:53:00,
2013-01-16 14:54:00,33.3,30.1,30.09,WSW,244,3.0,7.0,88,0.00,,,0.03,Wunderground v.1.15,2013-01-16 19:54:00,
2013-01-16 14:56:00,33.3,30.1,30.09,SW,236,2.0,7.0,88,0.00,,,0.03,Wunderground v.1.15,2013-01-16 19:56:00,
2013-01-16 14:58:00,33.3,30.1,30.09,SW,236,1.0,7.0,88,0.00,,,0.03,Wunderground v.1.15,2013-01-16 19:58:00,
2013-01-16 15:00:00,33.3,30.1,30.09,SSW,213,5.0,7.0,88,0.00,,,0.03,Wunderground v.1.15,2013-01-16 20:00:00,
2013-01-16 15:01:00,33.3,30.1,30.09,SSW,209,0.0,6.0,88,0.00,,,0.03,Wunderground v.1.15,2013-01-16 20:01:00,
2013-01-16 15:03:00,33.3,30.1,30.09,SSW,211,7.0,7.0,88,0.00,,,0.03,Wunderground v.1.15,2013-01-16 20:03:00,
2013-01-16 15:05:00,33.3,30.1,30.09,SW,215,3.0,7.0,88,0.00,,,0.03,Wunderground v.1.15,2013-01-16 20:05:00,
2013-01-16 15:06:00,33.3,30.4,30.09,SSW,211,3.0,7.0,89,0.00,,,0.03,Wunderground v.1.15,2013-01-16 20:06:00,
2013-01-16 15:08:00,33.3,30.4,30.09,SSW,211,5.0,7.0,89,0.00,,,0.03,Wunderground v.1.15,2013-01-16 20:08:00,
2013-01-16 15:10:00,33.2,30.3,30.09,SSW,211,1.0,7.0,89,0.00,,,0.03,Wunderground v.1.15,2013-01-16 20:10:00,
2013-01-16 15:11:00,33.2,30.3,30.09,SSW,209,4.0,5.0,89,0.00,,,0.03,Wunderground v.1.15,2013-01-16 20:11:00,
2013-01-16 15:13:00,33.2,30.3,30.09,SSW,209,0.0,5.0,89,0.00,,,0.03,Wunderground v.1.15,2013-01-16 20:13:00,
2013-01-16 15:15:00,33.1,30.2,30.09,SSW,209,0.0,5.0,89,0.00,,,0.03,Wunderground v.1.15,2013-01-16 20:15:00,
2013-01-16 15:17:00,33.1,30.2,30.09,SSW,209,2.0,5.0,89,0.00,,,0.04,Wunderground v.1.15,2013-01-16 20:17:00,
2013-01-16 15:19:00,33.1,30.2,30.09,SW,226,5.0,7.0,89,0.00,,,0.04,Wunderground v.1.15,2013-01-16 20:19:00,
2013-01-16 15:20:00,33.1,29.9,30.09,SW,224,3.0,3.0,88,0.00,,,0.04,Wunderground v.1.15,2013-01-16 20:20:00,
2013-01-16 15:22:00,33.0,29.8,30.09,SW,228,2.0,9.0,88,0.00,,,0.04,Wunderground v.1.15,2013-01-16 20:22:00,
2013-01-16 15:24:00,33.0,29.8,30.09,SW,228,3.0,9.0,88,0.00,,,0.04,Wunderground v.1.15,2013-01-16 20:24:00,
2013-01-16 15:25:00,33.0,29.8,30.09,SW,222,5.0,9.0,88,0.00,,,0.04,Wunderground v.1.15,2013-01-16 20:25:00,
2013-01-16 15:27:00,33.0,29.8,30.09,SW,221,3.0,9.0,88,0.00,,,0.04,Wunderground v.1.15,2013-01-16 20:27:00,
2013-01-16 15:29:00,33.0,29.8,30.10,SW,218,9.0,10.0,88,0.00,,,0.04,Wunderground v.1.15,2013-01-16 20:29:00,
2013-01-16 15:30:00,33.0,29.8,30.10,SW,226,6.0,6.0,88,0.00,,,0.04,Wunderground v.1.15,2013-01-16 20:30:00,
2013-01-16 15:31:00,32.9,29.7,30.10,SW,230,3.0,7.0,88,0.00,,,0.04,Wunderground v.1.15,2013-01-16 20:31:00,
2013-01-16 15:32:00,32.9,29.7,30.10,SSW,213,4.0,7.0,88,0.00,,,0.04,Wunderground v.1.15,2013-01-16 20:32:00,
2013-01-16 15:34:00,32.9,29.7,30.10,SSW,200,6.0,10.0,88,0.00,,,0.04,Wunderground v.1.15,2013-01-16 20:34:00,
2013-01-16 15:35:00,32.9,29.7,30.09,SSW,210,4.0,10.0,88,0.00,,,0.04,Wunderground v.1.15,2013-01-16 20:35:00,
2013-01-16 15:36:00,32.9,29.7,30.10,SSW,205,4.0,10.0,88,0.00,,,0.04,Wunderground v.1.15,2013-01-16 20:36:00,
2013-01-16 15:37:00,32.9,29.7,30.09,SSW,205,2.0,10.0,88,0.00,,,0.04,Wunderground v.1.15,2013-01-16 20:37:00,
2013-01-16 15:39:00,32.8,29.9,30.09,SW,220,5.0,10.0,89,0.00,,,0.04,Wunderground v.1.15,2013-01-16 20:39:00,
2013-01-16 15:40:00,32.8,29.9,30.09,SSW,211,4.0,10.0,89,0.00,,,0.04,Wunderground v.1.15,2013-01-16 20:40:00,
2013-01-16 15:41:00,32.8,29.9,30.09,SSW,209,1.0,10.0,89,0.00,,,0.04,Wunderground v.1.15,2013-01-16 20:41:00,
2013-01-16 15:42:00,32.8,29.9,30.09,SSW,209,2.0,10.0,89,0.00,,,0.04,Wunderground v.1.15,2013-01-16 20:42:00,
2013-01-16 15:44:00,32.8,29.9,30.09,SW,221,3.0,10.0,89,0.00,,,0.04,Wunderground v.1.15,2013-01-16 20:44:00,
2013-01-16 15:45:00,32.8,29.9,30.09,SW,232,7.0,10.0,89,0.00,,,0.04,Wunderground v.1.15,2013-01-16 20:45:00,
2013-01-16 15:46:00,32.8,29.9,30.09,SSW,200,7.0,11.0,89,0.00,,,0.04,Wunderground v.1.15,2013-01-16 20:46:00,
2013-01-16 15:47:00,32.7,29.5,30.09,SW,225,4.0,11.0,88,0.00,,,0.04,Wunderground v.1.15,2013-01-16 20:47:00,
2013-01-16 15:50:00,32.7,29.5,30.10,SW,219,2.0,5.0,88,0.00,,,0.04,Wunderground v.1.15,2013-01-16 20:50:00,
2013-01-16 15:51:00,32.6,29.4,30.10,SW,236,5.0,7.0,88,0.00,,,0.04,Wunderground v.1.15,2013-01-16 20:51:00,
2013-01-16 15:52:00,32.6,29.4,30.10,SW,234,3.0,9.0,88,0.00,,,0.04,Wunderground v.1.15,2013-01-16 20:52:00,
2013-01-16 15:55:00,32.6,29.4,30.10,SW,219,2.0,9.0,88,0.00,,,0.04,Wunderground v.1.15,2013-01-16 20:55:00,
2013-01-16 15:56:00,32.6,29.4,30.10,SW,214,4.0,9.0,88,0.00,,,0.04,Wunderground v.1.15,2013-01-16 20:56:00,
2013-01-16 15:57:00,32.6,29.4,30.10,SSW,205,5.0,9.0,88,0.00,,,0.04,Wunderground v.1.15,2013-01-16 20:57:00,
2013-01-16 16:00:00,32.6,29.4,30.11,SSW,213,3.0,4.0,88,0.00,,,0.04,Wunderground v.1.15,2013-01-16 21:00:00,
2013-01-16 16:01:00,32.6,29.4,30.10,SSW,211,3.0,5.0,88,0.00,,,0.04,Wunderground v.1.15,2013-01-16 21:01:00,
2013-01-16 16:03:00,32.6,29.4,30.10,SW,224,7.0,7.0,88,0.00,,,0.04,Wunderground v.1.15,2013-01-16 21:03:00,
2013-01-16 16:05:00,32.5,29.3,30.10,SW,230,1.0,7.0,88,0.00,,,0.04,Wunderground v.1.15,2013-01-16 21:05:00,
2013-01-16 16:06:00,32.5,29.3,30.10,SW,230,1.0,7.0,88,0.00,,,0.04,Wunderground v.1.15,2013-01-16 21:06:00,
2013-01-16 16:08:00,32.5,29.3,30.10,SW,226,2.0,9.0,88,0.00,,,0.04,Wunderground v.1.15,2013-01-16 21:08:00,
2013-01-16 16:10:00,32.5,29.3,30.10,SW,226,0.0,4.0,88,0.00,,,0.04,Wunderground v.1.15,2013-01-16 21:10:00,
2013-01-16 16:12:00,32.5,29.3,30.10,SW,226,0.0,4.0,88,0.00,,,0.04,Wunderground v.1.15,2013-01-16 21:12:00,
2013-01-16 16:13:00,32.5,29.3,30.10,SW,227,4.0,4.0,88,0.00,,,0.04,Wunderground v.1.15,2013-01-16 21:13:00,
2013-01-16 16:15:00,32.5,29.3,30.10,SW,228,2.0,5.0,88,0.00,,,0.04,Wunderground v.1.15,2013-01-16 21:15:00,
2013-01-16 16:16:00,32.5,29.3,30.10,SW,228,1.0,5.0,88,0.00,,,0.04,Wunderground v.1.15,2013-01-16 21:16:00,
2013-01-16 16:17:00,32.5,29.3,30.10,SW,232,4.0,5.0,88,0.00,,,0.04,Wunderground v.1.15,2013-01-16 21:17:00,
2013-01-16 16:18:00,32.5,29.3,30.11,SW,233,4.0,5.0,88,0.00,,,0.04,Wunderground v.1.15,2013-01-16 21:18:00,
2013-01-16 16:20:00,32.5,29.3,30.11,SW,234,9.0,9.0,88,0.00,,,0.04,Wunderground v.1.15,2013-01-16 21:20:00,
2013-01-16 16:21:00,32.5,29.3,30.11,WSW,237,5.0,9.0,88,0.00,,,0.04,Wunderground v.1.15,2013-01-16 21:21:00,
2013-01-16 16:22:00,32.5,29.3,30.11,SW,234,5.0,9.0,88,0.00,,,0.04,Wunderground v.1.15,2013-01-16 21:22:00,
2013-01-16 16:23:00,32.5,29.3,30.11,SW,233,5.0,9.0,88,0.00,,,0.04,Wunderground v.1.15,2013-01-16 21:23:00,
2013-01-16 16:26:00,32.5,29.3,30.10,SW,233,2.0,9.0,88,0.00,,,0.04,Wunderground v.1.15,2013-01-16 21:26:00,
2013-01-16 16:27:00,32.5,29.3,30.10,SW,233,2.0,9.0,88,0.00,,,0.04,Wunderground v.1.15,2013-01-16 21:27:00,
2013-01-16 16:29:00,32.5,29.3,30.11,SW,233,2.0,9.0,88,0.00,,,0.04,Wunderground v.1.15,2013-01-16 21:29:00,
2013-01-16 16:31:00,32.5,29.3,30.11,SW,230,5.0,9.0,88,0.00,,,0.04,Wunderground v.1.15,2013-01-16 21:31:00,
2013-01-16 16:32:00,32.5,29.3,30.12,SW,231,4.0,9.0,88,0.00,,,0.04,Wunderground v.1.15,2013-01-16 21:32:00,
2013-01-16 16:34:00,32.4,29.5,30.11,SW,232,1.0,9.0,89,0.00,,,0.04,Wunderground v.1.15,2013-01-16 21:34:00,
2013-01-16 16:36:00,32.4,29.2,30.11,SW,232,2.0,9.0,88,0.00,,,0.04,Wunderground v.1.15,2013-01-16 21:36:00,
2013-01-16 16:37:00,32.5,29.6,30.11,SW,232,3.0,9.0,89,0.00,,,0.04,Wunderground v.1.15,2013-01-16 21:37:00,
2013-01-16 16:39:00,32.4,29.5,30.12,SW,236,4.0,9.0,89,0.00,,,0.04,Wunderground v.1.15,2013-01-16 21:39:00,
2013-01-16 16:41:00,32.4,29.5,30.11,SW,225,5.0,7.0,89,0.00,,,0.04,Wunderground v.1.15,2013-01-16 21:41:00,
2013-01-16 16:42:00,32.4,29.5,30.11,SW,232,5.0,8.0,89,0.00,,,0.04,Wunderground v.1.15,2013-01-16 21:42:00,
2013-01-16 16:44:00,32.4,29.5,30.11,SW,233,3.0,8.0,89,0.00,,,0.04,Wunderground v.1.15,2013-01-16 21:44:00,
2013-01-16 16:46:00,32.3,29.4,30.11,SW,233,4.0,8.0,89,0.00,,,0.04,Wunderground v.1.15,2013-01-16 21:46:00,
2013-01-16 16:47:00,32.3,29.4,30.11,SW,233,2.0,8.0,89,0.00,,,0.04,Wunderground v.1.15,2013-01-16 21:47:00,
2013-01-16 16:49:00,32.3,29.4,30.12,WSW,249,2.0,8.0,89,0.00,,,0.04,Wunderground v.1.15,2013-01-16 21:49:00,
2013-01-16 16:52:00,32.3,29.4,30.12,WSW,249,2.0,4.0,89,0.00,,,0.04,Wunderground v.1.15,2013-01-16 21:52:00,
2013-01-16 16:55:00,32.3,29.4,30.12,WSW,251,4.0,5.0,89,0.00,,,0.04,Wunderground v.1.15,2013-01-16 21:55:00,
2013-01-16 16:57:00,32.3,29.4,30.12,WSW,251,3.0,5.0,89,0.00,,,0.04,Wunderground v.1.15,2013-01-16 21:57:00,
2013-01-16 17:00:00,32.3,29.4,30.12,WSW,253,2.0,2.0,89,0.00,,,0.04,Wunderground v.1.15,2013-01-16 22:00:00,
2013-01-16 17:02:00,32.2,29.3,30.12,WSW,254,0.0,3.0,89,0.00,,,0.04,Wunderground v.1.15,2013-01-16 22:02:00,
2013-01-16 17:03:00,32.3,29.4,30.12,WSW,254,0.0,3.0,89,0.00,,,0.04,Wunderground v.1.15,2013-01-16 22:03:00,
2013-01-16 17:05:00,32.2,29.3,30.12,WSW,254,2.0,3.0,89,0.00,,,0.04,Wunderground v.1.15,2013-01-16 22:05:00,
2013-01-16 17:07:00,32.2,29.3,30.12,WSW,253,0.0,3.0,89,0.00,,,0.04,Wunderground v.1.15,2013-01-16 22:07:00,
2013-01-16 17:08:00,32.2,29.3,30.12,WSW,253,2.0,3.0,89,0.00,,,0.04,Wunderground v.1.15,2013-01-16 22:08:00,
2013-01-16 17:11:00,32.2,29.3,30.12,WSW,254,2.0,3.0,89,0.00,,,0.04,Wunderground v.1.15,2013-01-16 22:11:00,
2013-01-16 17:12:00,32.2,29.3,30.12,WSW,253,0.0,4.0,89,0.00,,,0.04,Wunderground v.1.15,2013-01-16 22:12:00,
2013-01-16 17:13:00,32.2,29.3,30.12,WSW,253,2.0,4.0,89,0.00,,,0.04,Wunderground v.1.15,2013-01-16 22:13:00,
2013-01-16 17:16:00,32.1,29.2,30.11,WSW,253,1.0,4.0,89,0.00,,,0.04,Wunderground v.1.15,2013-01-16 22:16:00,
2013-01-16 17:17:00,32.1,29.2,30.11,WSW,253,0.0,4.0,89,0.00,,,0.04,Wunderground v.1.15,2013-01-16 22:17:00,
2013-01-16 17:18:00,32.1,29.2,30.12,WSW,253,0.0,4.0,89,0.00,,,0.04,Wunderground v.1.15,2013-01-16 22:18:00,
2013-01-16 17:21:00,32.1,29.2,30.11,WSW,253,0.0,2.0,89,0.00,,,0.04,Wunderground v.1.15,2013-01-16 22:21:00,
2013-01-16 17:22:00,32.1,29.2,30.11,WSW,253,0.0,2.0,89,0.00,,,0.04,Wunderground v.1.15,2013-01-16 22:22:00,
2013-01-16 17:23:00,32.1,29.2,30.11,WSW,253,3.0,3.0,89,0.00,,,0.04,Wunderground v.1.15,2013-01-16 22:23:00,
2013-01-16 17:26:00,32.0,29.1,30.11,WSW,253,3.0,5.0,89,0.00,,,0.04,Wunderground v.1.15,2013-01-16 22:26:00,
2013-01-16 17:27:00,32.0,29.1,30.11,WSW,253,3.0,5.0,89,0.00,,,0.04,Wunderground v.1.15,2013-01-16 22:27:00,
2013-01-16 17:29:00,32.0,29.1,30.11,WSW,253,1.0,5.0,89,0.00,,,0.04,Wunderground v.1.15,2013-01-16 22:29:00,
2013-01-16 17:31:00,31.9,29.0,30.10,WSW,253,3.0,4.0,89,0.00,,,0.04,Wunderground v.1.15,2013-01-16 22:31:00,
2013-01-16 17:32:00,31.9,29.0,30.11,WSW,253,3.0,4.0,89,0.00,,,0.04,Wunderground v.1.15,2013-01-16 22:32:00,
2013-01-16 17:34:00,31.9,29.0,30.10,WSW,253,2.0,5.0,89,0.00,,,0.04,Wunderground v.1.15,2013-01-16 22:34:00,
2013-01-16 17:37:00,31.9,29.0,30.11,WSW,252,2.0,5.0,89,0.00,,,0.04,Wunderground v.1.15,2013-01-16 22:37:00,
2013-01-16 17:39:00,31.8,28.9,30.10,WSW,253,0.0,5.0,89,0.00,,,0.04,Wunderground v.1.15,2013-01-16 22:39:00,
2013-01-16 17:42:00,31.8,29.2,30.10,WSW,253,2.0,3.0,90,0.00,,,0.04,Wunderground v.1.15,2013-01-16 22:42:00,
2013-01-16 17:43:00,31.8,29.2,30.10,WSW,253,2.0,3.0,90,0.00,,,0.04,Wunderground v.1.15,2013-01-16 22:43:00,
2013-01-16 17:45:00,31.7,28.8,30.11,WSW,253,3.0,4.0,89,0.00,,,0.04,Wunderground v.1.15,2013-01-16 22:45:00,
2013-01-16 17:47:00,31.7,28.8,30.11,WSW,253,3.0,6.0,89,0.00,,,0.04,Wunderground v.1.15,2013-01-16 22:47:00,
2013-01-16 17:48:00,31.7,28.8,30.11,WSW,253,2.0,6.0,89,0.00,,,0.04,Wunderground v.1.15,2013-01-16 22:48:00,
2013-01-16 17:50:00,31.7,29.1,30.11,WSW,252,0.0,2.0,90,0.00,,,0.04,Wunderground v.1.15,2013-01-16 22:50:00,
2013-01-16 17:52:00,31.7,29.1,30.11,WSW,252,3.0,4.0,90,0.00,,,0.04,Wunderground v.1.15,2013-01-16 22:52:00,
2013-01-16 17:53:00,31.7,29.1,30.11,WSW,253,4.0,4.0,90,0.00,,,0.04,Wunderground v.1.15,2013-01-16 22:53:00,
2013-01-16 17:55:00,31.7,29.1,30.11,WSW,253,1.0,4.0,90,0.00,,,0.04,Wunderground v.1.15,2013-01-16 22:55:00,
2013-01-16 17:57:00,31.6,29.0,30.11,WSW,253,0.0,4.0,90,0.00,,,0.04,Wunderground v.1.15,2013-01-16 22:57:00,
2013-01-16 17:58:00,31.6,29.0,30.11,WSW,252,0.0,4.0,90,0.00,,,0.04,Wunderground v.1.15,2013-01-16 22:58:00,
2013-01-16 18:00:00,31.6,29.0,30.11,WSW,252,1.0,3.0,90,0.00,,,0.04,Wunderground v.1.15,2013-01-16 23:00:00,
2013-01-16 18:03:00,31.6,29.0,30.11,WSW,252,3.0,5.0,90,0.00,,,0.04,Wunderground v.1.15,2013-01-16 23:03:00,
2013-01-16 18:05:00,31.6,29.0,30.11,WSW,251,2.0,5.0,90,0.00,,,0.04,Wunderground v.1.15,2013-01-16 23:05:00,
2013-01-16 18:08:00,31.6,29.0,30.10,WSW,251,4.0,5.0,90,0.00,,,0.04,Wunderground v.1.15,2013-01-16 23:08:00,
2013-01-16 18:10:00,31.5,28.9,30.11,WSW,250,0.0,3.0,90,0.00,,,0.04,Wunderground v.1.15,2013-01-16 23:10:00,
2013-01-16 18:13:00,31.5,28.9,30.10,WSW,242,6.0,7.0,90,0.00,,,0.04,Wunderground v.1.15,2013-01-16 23:13:00,
2013-01-16 18:16:00,31.5,28.9,30.11,SW,228,2.0,7.0,90,0.00,,,0.04,Wunderground v.1.15,2013-01-16 23:16:00,
2013-01-16 18:18:00,31.5,28.9,30.11,SW,222,4.0,7.0,90,0.00,,,0.04,Wunderground v.1.15,2013-01-16 23:18:00,
2013-01-16 18:21:00,31.5,28.9,30.12,SW,223,5.0,7.0,90,0.00,,,0.04,Wunderground v.1.15,2013-01-16 23:21:00,
2013-01-16 18:23:00,31.4,28.8,30.12,SW,218,5.0,7.0,90,0.00,,,0.04,Wunderground v.1.15,2013-01-16 23:23:00,
2013-01-16 18:24:00,31.4,28.8,30.12,SW,218,4.0,7.0,90,0.00,,,0.04,Wunderground v.1.15,2013-01-16 23:24:00,
2013-01-16 18:26:00,31.4,28.8,30.13,SW,217,2.0,7.0,90,0.00,,,0.04,Wunderground v.1.15,2013-01-16 23:26:00,
2013-01-16 18:28:00,31.4,29.1,30.13,SW,217,6.0,7.0,91,0.00,,,0.04,Wunderground v.1.15,2013-01-16 23:28:00,
2013-01-16 18:29:00,31.4,29.1,30.13,SW,216,4.0,7.0,91,0.00,,,0.04,Wunderground v.1.15,2013-01-16 23:29:00,
2013-01-16 18:31:00,31.3,29.0,30.13,SW,218,3.0,5.0,91,0.00,,,0.04,Wunderground v.1.15,2013-01-16 23:31:00,
2013-01-16 18:33:00,31.3,29.0,30.13,SW,218,5.0,5.0,91,0.00,,,0.04,Wunderground v.1.15,2013-01-16 23:33:00,
2013-01-16 18:34:00,31.3,29.0,30.13,SW,217,2.0,5.0,91,0.00,,,0.04,Wunderground v.1.15,2013-01-16 23:34:00,
2013-01-16 18:37:00,31.2,28.9,30.12,SW,217,3.0,5.0,91,0.00,,,0.04,Wunderground v.1.15,2013-01-16 23:37:00,
2013-01-16 18:38:00,31.2,28.9,30.12,SW,217,2.0,5.0,91,0.00,,,0.04,Wunderground v.1.15,2013-01-16 23:38:00,
2013-01-16 18:39:00,31.2,28.9,30.13,SW,217,0.0,5.0,91,0.00,,,0.04,Wunderground v.1.15,2013-01-16 23:39:00,
2013-01-16 18:42:00,31.2,28.9,30.12,SW,218,5.0,5.0,91,0.00,,,0.04,Wunderground v.1.15,2013-01-16 23:42:00,
2013-01-16 18:43:00,31.2,28.6,30.13,SW,217,1.0,5.0,90,0.00,,,0.04,Wunderground v.1.15,2013-01-16 23:43:00,
2013-01-16 18:44:00,31.2,28.6,30.13,SW,217,0.0,5.0,90,0.00,,,0.04,Wunderground v.1.15,2013-01-16 23:44:00,
2013-01-16 18:47:00,31.2,28.6,30.13,SW,219,2.0,5.0,90,0.00,,,0.04,Wunderground v.1.15,2013-01-16 23:47:00,
2013-01-16 18:49:00,31.2,28.6,30.13,SW,219,0.0,5.0,90,0.00,,,0.04,Wunderground v.1.15,2013-01-16 23:49:00,
2013-01-16 18:50:00,31.2,28.9,30.12,SW,219,1.0,2.0,91,0.00,,,0.04,Wunderground v.1.15,2013-01-16 23:50:00,
2013-01-16 18:52:00,31.2,28.9,30.13,SW,219,0.0,3.0,91,0.00,,,0.04,Wunderground v.1.15,2013-01-16 23:52:00,
2013-01-16 18:54:00,31.2,28.9,30.13,SW,219,1.0,3.0,91,0.00,,,0.04,Wunderground v.1.15,2013-01-16 23:54:00,
2013-01-16 18:55:00,31.2,28.9,30.13,SW,219,0.0,3.0,91,0.00,,,0.04,Wunderground v.1.15,2013-01-16 23:55:00,
2013-01-16 18:57:00,31.2,28.9,30.13,SW,219,2.0,3.0,91,0.00,,,0.04,Wunderground v.1.15,2013-01-16 23:57:00,
2013-01-16 18:59:00,31.2,28.9,30.12,SW,219,0.0,3.0,91,0.00,,,0.04,Wunderground v.1.15,2013-01-16 23:59:00,
2013-01-16 19:00:00,31.2,28.9,30.13,SW,224,3.0,4.0,91,0.00,,,0.04,Wunderground v.1.15,2013-01-17 00:00:00,
2013-01-16 19:02:00,31.2,28.9,30.13,WSW,240,4.0,6.0,91,0.00,,,0.04,Wunderground v.1.15,2013-01-17 00:02:00,
2013-01-16 19:04:00,31.2,28.9,30.13,WSW,240,1.0,6.0,91,0.00,,,0.04,Wunderground v.1.15,2013-01-17 00:04:00,
2013-01-16 19:06:00,31.1,28.8,30.13,WSW,240,0.0,6.0,91,0.00,,,0.04,Wunderground v.1.15,2013-01-17 00:06:00,
2013-01-16 19:08:00,31.2,28.9,30.13,WSW,240,1.0,6.0,91,0.00,,,0.04,Wunderground v.1.15,2013-01-17 00:08:00,
2013-01-16 19:09:00,31.1,28.8,30.14,WSW,240,3.0,6.0,91,0.00,,,0.04,Wunderground v.1.15,2013-01-17 00:09:00,
2013-01-16 19:10:00,31.1,28.8,30.14,WSW,240,2.0,2.0,91,0.00,,,0.04,Wunderground v.1.15,2013-01-17 00:10:00,
2013-01-16 19:11:00,31.1,28.8,30.14,WSW,240,3.0,3.0,91,0.00,,,0.04,Wunderground v.1.15,2013-01-17 00:11:00,
2013-01-16 19:13:00,31.1,28.8,30.14,WSW,240,0.0,3.0,91,0.00,,,0.04,Wunderground v.1.15,2013-01-17 00:13:00,
2013-01-16 19:14:00,31.1,28.8,30.13,WSW,240,0.0,3.0,91,0.00,,,0.04,Wunderground v.1.15,2013-01-17 00:14:00,
2013-01-16 19:15:00,31.1,28.8,30.13,WSW,240,0.0,3.0,91,0.00,,,0.04,Wunderground v.1.15,2013-01-17 00:15:00,
2013-01-16 19:16:00,31.1,28.8,30.14,WSW,240,0.0,3.0,91,0.00,,,0.04,Wunderground v.1.15,2013-01-17 00:16:00,
2013-01-16 19:18:00,31.1,28.8,30.14,WSW,240,2.0,4.0,91,0.00,,,0.04,Wunderground v.1.15,2013-01-17 00:18:00,
2013-01-16 19:19:00,31.1,28.8,30.14,WSW,240,0.0,4.0,91,0.00,,,0.04,Wunderground v.1.15,2013-01-17 00:19:00,
2013-01-16 19:20:00,31.1,28.8,30.14,WSW,240,0.0,1.0,91,0.00,,,0.04,Wunderground v.1.15,2013-01-17 00:20:00,
2013-01-16 19:21:00,31.1,28.8,30.14,WSW,240,0.0,1.0,91,0.00,,,0.04,Wunderground v.1.15,2013-01-17 00:21:00,
2013-01-16 19:23:00,31.1,28.8,30.14,WSW,240,2.0,3.0,91,0.00,,,0.04,Wunderground v.1.15,2013-01-17 00:23:00,
2013-01-16 19:24:00,31.0,28.7,30.14,WSW,240,0.0,3.0,91,0.00,,,0.04,Wunderground v.1.15,2013-01-17 00:24:00,
2013-01-16 19:25:00,31.0,28.7,30.14,WSW,240,0.0,3.0,91,0.00,,,0.04,Wunderground v.1.15,2013-01-17 00:25:00,
2013-01-16 19:26:00,31.0,28.7,30.14,WSW,240,2.0,3.0,91,0.00,,,0.04,Wunderground v.1.15,2013-01-17 00:26:00,
2013-01-16 19:28:00,31.0,28.7,30.14,WSW,241,3.0,5.0,91,0.00,,,0.04,Wunderground v.1.15,2013-01-17 00:28:00,
2013-01-16 19:29:00,31.0,28.7,30.14,WSW,242,2.0,5.0,91,0.00,,,0.04,Wunderground v.1.15,2013-01-17 00:29:00,
2013-01-16 19:30:00,31.0,28.7,30.15,WSW,242,2.0,3.0,91,0.00,,,0.04,Wunderground v.1.15,2013-01-17 00:30:00,
2013-01-16 19:31:00,31.0,28.7,30.15,WSW,242,0.0,3.0,91,0.00,,,0.04,Wunderground v.1.15,2013-01-17 00:31:00,
2013-01-16 19:33:00,31.0,28.7,30.15,WSW,242,0.0,3.0,91,0.00,,,0.04,Wunderground v.1.15,2013-01-17 00:33:00,
2013-01-16 19:34:00,31.0,28.7,30.15,WSW,242,1.0,3.0,91,0.00,,,0.04,Wunderground v.1.15,2013-01-17 00:34:00,
2013-01-16 19:35:00,31.0,28.7,30.15,WSW,242,3.0,4.0,91,0.00,,,0.04,Wunderground v.1.15,2013-01-17 00:35:00,
2013-01-16 19:37:00,31.0,28.7,30.15,WSW,241,4.0,5.0,91,0.00,,,0.04,Wunderground v.1.15,2013-01-17 00:37:00,
2013-01-16 19:39:00,31.0,28.7,30.15,WSW,242,2.0,6.0,91,0.00,,,0.04,Wunderground v.1.15,2013-01-17 00:39:00,
2013-01-16 19:40:00,31.0,28.7,30.15,WSW,241,0.0,2.0,91,0.00,,,0.04,Wunderground v.1.15,2013-01-17 00:40:00,
2013-01-16 19:42:00,31.0,28.7,30.14,WSW,241,0.0,2.0,91,0.00,,,0.04,Wunderground v.1.15,2013-01-17 00:42:00,
2013-01-16 19:44:00,31.0,28.7,30.14,WSW,242,2.0,3.0,91,0.00,,,0.04,Wunderground v.1.15,2013-01-17 00:44:00,
2013-01-16 19:45:00,30.9,28.6,30.15,WSW,241,2.0,5.0,91,0.00,,,0.04,Wunderground v.1.15,2013-01-17 00:45:00,
2013-01-16 19:47:00,30.9,28.6,30.15,WSW,241,1.0,5.0,91,0.00,,,0.04,Wunderground v.1.15,2013-01-17 00:47:00,
2013-01-16 19:49:00,30.9,28.6,30.15,WSW,241,2.0,5.0,91,0.00,,,0.04,Wunderground v.1.15,2013-01-17 00:49:00,
2013-01-16 19:50:00,30.9,28.6,30.15,WSW,244,4.0,5.0,91,0.00,,,0.04,Wunderground v.1.15,2013-01-17 00:50:00,
2013-01-16 19:52:00,30.9,28.6,30.14,WSW,244,0.0,4.0,91,0.00,,,0.04,Wunderground v.1.15,2013-01-17 00:52:00,
2013-01-16 19:54:00,30.9,28.6,30.14,WSW,244,2.0,4.0,91,0.00,,,0.04,Wunderground v.1.15,2013-01-17 00:54:00,
2013-01-16 19:55:00,30.9,28.6,30.15,WSW,244,0.0,4.0,91,0.00,,,0.04,Wunderground v.1.15,2013-01-17 00:55:00,
2013-01-16 19:56:00,30.9,28.6,30.15,WSW,245,4.0,4.0,91,0.00,,,0.04,Wunderground v.1.15,2013-01-17 00:56:00,
2013-01-16 19:57:00,30.9,28.6,30.15,WSW,253,2.0,6.0,91,0.00,,,0.04,Wunderground v.1.15,2013-01-17 00:57:00,
2013-01-16 19:59:00,30.9,28.6,30.15,WSW,253,4.0,6.0,91,0.00,,,0.04,Wunderground v.1.15,2013-01-17 00:59:00,
2013-01-16 20:00:00,30.9,28.6,30.15,WSW,253,0.0,2.0,91,0.00,,,0.04,Wunderground v.1.15,2013-01-17 01:00:00,
2013-01-16 20:01:00,30.9,28.6,30.14,WSW,253,0.0,2.0,91,0.00,,,0.04,Wunderground v.1.15,2013-01-17 01:01:00,
2013-01-16 20:02:00,30.9,28.6,30.14,WSW,253,0.0,2.0,91,0.00,,,0.04,Wunderground v.1.15,2013-01-17 01:02:00,
2013-01-16 20:04:00,30.9,28.6,30.14,WSW,257,4.0,6.0,91,0.00,,,0.04,Wunderground v.1.15,2013-01-17 01:04:00,
2013-01-16 20:05:00,30.9,28.6,30.14,WSW,257,2.0,6.0,91,0.00,,,0.04,Wunderground v.1.15,2013-01-17 01:05:00,
2013-01-16 20:06:00,30.9,28.6,30.14,WSW,257,2.0,6.0,91,0.00,,,0.04,Wunderground v.1.15,2013-01-17 01:06:00,
2013-01-16 20:07:00,30.8,28.5,30.14,WSW,257,4.0,6.0,91,0.00,,,0.04,Wunderground v.1.15,2013-01-17 01:07:00,
2013-01-16 20:09:00,30.8,28.5,30.14,West,264,4.0,7.0,91,0.00,,,0.04,Wunderground v.1.15,2013-01-17 01:09:00,
2013-01-16 20:10:00,30.8,28.5,30.14,West,264,5.0,5.0,91,0.00,,,0.04,Wunderground v.1.15,2013-01-17 01:10:00,
2013-01-16 20:11:00,30.8,28.5,30.14,West,264,4.0,5.0,91,0.00,,,0.04,Wunderground v.1.15,2013-01-17 01:11:00,
2013-01-16 20:12:00,30.8,28.5,30.14,West,264,3.0,5.0,91,0.00,,,0.04,Wunderground v.1.15,2013-01-17 01:12:00,
2013-01-16 20:14:00,30.8,28.5,30.15,West,263,3.0,5.0,91,0.00,,,0.04,Wunderground v.1.15,2013-01-17 01:14:00,
2013-01-16 20:15:00,30.8,28.5,30.16,West,263,3.0,5.0,91,0.00,,,0.04,Wunderground v.1.15,2013-01-17 01:15:00,
2013-01-16 20:16:00,30.8,28.5,30.15,West,263,4.0,5.0,91,0.00,,,0.04,Wunderground v.1.15,2013-01-17 01:16:00,
2013-01-16 20:17:00,30.8,28.5,30.15,West,263,2.0,5.0,91,0.00,,,0.04,Wunderground v.1.15,2013-01-17 01:17:00,
2013-01-16 20:20:00,30.8,28.5,30.15,West,263,3.0,5.0,91,0.00,,,0.04,Wunderground v.1.15,2013-01-17 01:20:00,
2013-01-16 20:21:00,30.8,28.5,30.15,West,263,4.0,5.0,91,0.00,,,0.04,Wunderground v.1.15,2013-01-17 01:21:00,
2013-01-16 20:22:00,30.8,28.5,30.15,West,263,2.0,5.0,91,0.00,,,0.04,Wunderground v.1.15,2013-01-17 01:22:00,
2013-01-16 20:25:00,30.8,28.5,30.15,West,261,3.0,5.0,91,0.00,,,0.04,Wunderground v.1.15,2013-01-17 01:25:00,
2013-01-16 20:26:00,30.8,28.5,30.15,West,261,2.0,5.0,91,0.00,,,0.04,Wunderground v.1.15,2013-01-17 01:26:00,
2013-01-16 20:27:00,30.8,28.5,30.15,West,262,2.0,5.0,91,0.00,,,0.04,Wunderground v.1.15,2013-01-17 01:27:00,
2013-01-16 20:30:00,30.8,28.5,30.14,West,261,2.0,3.0,91,0.00,,,0.04,Wunderground v.1.15,2013-01-17 01:30:00,
2013-01-16 20:31:00,30.8,28.5,30.15,West,261,4.0,4.0,91,0.00,,,0.04,Wunderground v.1.15,2013-01-17 01:31:00,
2013-01-16 20:32:00,30.8,28.5,30.15,West,261,2.0,5.0,91,0.00,,,0.04,Wunderground v.1.15,2013-01-17 01:32:00,
2013-01-16 20:35:00,30.8,28.5,30.14,West,260,4.0,5.0,91,0.00,,,0.04,Wunderground v.1.15,2013-01-17 01:35:00,
2013-01-16 20:36:00,30.8,28.5,30.14,West,260,3.0,5.0,91,0.00,,,0.04,Wunderground v.1.15,2013-01-17 01:36:00,
2013-01-16 20:38:00,30.8,28.5,30.14,WSW,258,3.0,7.0,91,0.00,,,0.04,Wunderground v.1.15,2013-01-17 01:38:00,
2013-01-16 20:40:00,30.8,28.5,30.14,WSW,257,5.0,5.0,91,0.00,,,0.04,Wunderground v.1.15,2013-01-17 01:40:00,
2013-01-16 20:41:00,30.7,28.4,30.15,WSW,257,2.0,5.0,91,0.00,,,0.04,Wunderground v.1.15,2013-01-17 01:41:00,
2013-01-16 20:43:00,30.7,28.4,30.15,WSW,255,6.0,7.0,91,0.00,,,0.04,Wunderground v.1.15,2013-01-17 01:43:00,
2013-01-16 20:45:00,30.7,28.4,30.14,WSW,250,5.0,7.0,91,0.00,,,0.04,Wunderground v.1.15,2013-01-17 01:45:00,
2013-01-16 20:46:00,30.7,28.4,30.14,WSW,246,2.0,7.0,91,0.00,,,0.04,Wunderground v.1.15,2013-01-17 01:46:00,
2013-01-16 20:48:00,30.7,28.4,30.14,WSW,245,2.0,7.0,91,0.00,,,0.04,Wunderground v.1.15,2013-01-17 01:48:00,
2013-01-16 20:50:00,30.7,28.4,30.14,SW,234,3.0,5.0,91,0.00,,,0.04,Wunderground v.1.15,2013-01-17 01:50:00,
2013-01-16 20:51:00,30.7,28.4,30.14,SW,234,4.0,5.0,91,0.00,,,0.04,Wunderground v.1.15,2013-01-17 01:51:00,
2013-01-16 20:53:00,30.7,28.4,30.14,SW,234,3.0,5.0,91,0.00,,,0.04,Wunderground v.1.15,2013-01-17 01:53:00,
2013-01-16 20:55:00,30.7,28.4,30.15,SW,234,3.0,5.0,91,0.00,,,0.04,Wunderground v.1.15,2013-01-17 01:55:00,
2013-01-16 20:56:00,30.7,28.4,30.15,WSW,240,4.0,5.0,91,0.00,,,0.04,Wunderground v.1.15,2013-01-17 01:56:00,
2013-01-16 20:57:00,30.6,28.3,30.15,WSW,240,2.0,5.0,91,0.00,,,0.04,Wunderground v.1.15,2013-01-17 01:57:00,
2013-01-16 20:58:00,30.7,28.4,30.14,WSW,240,1.0,5.0,91,0.00,,,0.04,Wunderground v.1.15,2013-01-17 01:58:00,
2013-01-16 21:00:00,30.7,28.4,30.15,WSW,240,3.0,3.0,91,0.00,,,0.04,Wunderground v.1.15,2013-01-17 02:00:00,
2013-01-16 21:02:00,30.7,28.4,30.15,WSW,240,3.0,3.0,91,0.00,,,0.04,Wunderground v.1.15,2013-01-17 02:02:00,
2013-01-16 21:03:00,30.7,28.4,30.15,WSW,242,2.0,6.0,91,0.00,,,0.04,Wunderground v.1.15,2013-01-17 02:03:00,
2013-01-16 21:05:00,30.7,28.4,30.15,WSW,242,4.0,6.0,91,0.00,,,0.04,Wunderground v.1.15,2013-01-17 02:05:00,
2013-01-16 21:07:00,30.6,28.3,30.15,WSW,242,1.0,6.0,91,0.00,,,0.04,Wunderground v.1.15,2013-01-17 02:07:00,
2013-01-16 21:08:00,30.6,28.3,30.15,WSW,244,3.0,6.0,91,0.00,,,0.04,Wunderground v.1.15,2013-01-17 02:08:00,
2013-01-16 21:11:00,30.6,28.3,30.15,WSW,251,4.0,6.0,91,0.00,,,0.04,Wunderground v.1.15,2013-01-17 02:11:00,
2013-01-16 21:12:00,30.6,28.3,30.15,WSW,249,2.0,6.0,91,0.00,,,0.04,Wunderground v.1.15,2013-01-17 02:12:00,
2013-01-16 21:13:00,30.6,28.3,30.15,WSW,250,2.0,6.0,91,0.00,,,0.04,Wunderground v.1.15,2013-01-17 02:13:00,
2013-01-16 21:16:00,30.6,28.3,30.15,WSW,249,3.0,6.0,91,0.00,,,0.04,Wunderground v.1.15,2013-01-17 02:16:00,
2013-01-16 21:17:00,30.6,28.3,30.15,WSW,249,4.0,6.0,91,0.00,,,0.04,Wunderground v.1.15,2013-01-17 02:17:00,
2013-01-16 21:18:00,30.6,28.3,30.15,WSW,248,1.0,6.0,91,0.00,,,0.04,Wunderground v.1.15,2013-01-17 02:18:00,
2013-01-16 21:21:00,30.6,28.3,30.15,WSW,246,3.0,6.0,91,0.00,,,0.04,Wunderground v.1.15,2013-01-17 02:21:00,
2013-01-16 21:22:00,30.6,28.3,30.15,WSW,245,2.0,6.0,91,0.00,,,0.04,Wunderground v.1.15,2013-01-17 02:22:00,
2013-01-16 21:24:00,30.6,28.3,30.15,WSW,245,2.0,6.0,91,0.00,,,0.04,Wunderground v.1.15,2013-01-17 02:24:00,
2013-01-16 21:26:00,30.6,28.3,30.15,WSW,246,3.0,6.0,91,0.00,,,0.04,Wunderground v.1.15,2013-01-17 02:26:00,
2013-01-16 21:27:00,30.6,28.3,30.15,WSW,245,1.0,6.0,91,0.00,,,0.04,Wunderground v.1.15,2013-01-17 02:27:00,
2013-01-16 21:28:00,30.6,28.3,30.15,WSW,245,2.0,6.0,91,0.00,,,0.04,Wunderground v.1.15,2013-01-17 02:28:00,
2013-01-16 21:30:00,30.6,28.3,30.15,WSW,246,3.0,6.0,91,0.00,,,0.04,Wunderground v.1.15,2013-01-17 02:30:00,
2013-01-16 21:32:00,30.6,28.3,30.15,WSW,244,2.0,6.0,91,0.00,,,0.04,Wunderground v.1.15,2013-01-17 02:32:00,
2013-01-16 21:33:00,30.6,28.3,30.15,WSW,244,1.0,6.0,91,0.00,,,0.04,Wunderground v.1.15,2013-01-17 02:33:00,
2013-01-16 21:35:00,30.5,28.2,30.16,WSW,245,2.0,6.0,91,0.00,,,0.04,Wunderground v.1.15,2013-01-17 02:35:00,
2013-01-16 21:37:00,30.5,28.2,30.16,WSW,245,0.0,6.0,91,0.00,,,0.04,Wunderground v.1.15,2013-01-17 02:37:00,
2013-01-16 21:38:00,30.5,28.2,30.15,WSW,245,0.0,6.0,91,0.00,,,0.04,Wunderground v.1.15,2013-01-17 02:38:00,
2013-01-16 21:41:00,30.5,28.2,30.16,WSW,245,2.0,2.0,91,0.00,,,0.04,Wunderground v.1.15,2013-01-17 02:41:00,
2013-01-16 21:42:00,30.5,28.2,30.16,WSW,245,1.0,3.0,91,0.00,,,0.04,Wunderground v.1.15,2013-01-17 02:42:00,
2013-01-16 21:43:00,30.5,28.2,30.16,WSW,245,1.0,3.0,91,0.00,,,0.04,Wunderground v.1.15,2013-01-17 02:43:00,
2013-01-16 21:46:00,30.5,28.2,30.16,WSW,245,1.0,4.0,91,0.00,,,0.04,Wunderground v.1.15,2013-01-17 02:46:00,
2013-01-16 21:47:00,30.5,28.2,30.16,WSW,245,0.0,4.0,91,0.00,,,0.04,Wunderground v.1.15,2013-01-17 02:47:00,
2013-01-16 21:48:00,30.5,28.2,30.16,WSW,245,0.0,4.0,91,0.00,,,0.04,Wunderground v.1.15,2013-01-17 02:48:00,
2013-01-16 21:51:00,30.5,28.2,30.16,WSW,245,3.0,4.0,91,0.00,,,0.04,Wunderground v.1.15,2013-01-17 02:51:00,
2013-01-16 21:52:00,30.5,28.2,30.16,WSW,245,5.0,5.0,91,0.00,,,0.04,Wunderground v.1.15,2013-01-17 02:52:00,
2013-01-16 21:53:00,30.5,28.2,30.16,WSW,245,1.0,5.0,91,0.00,,,0.04,Wunderground v.1.15,2013-01-17 02:53:00,
2013-01-16 21:56:00,30.5,28.2,30.15,WSW,245,0.0,5.0,91,0.00,,,0.04,Wunderground v.1.15,2013-01-17 02:56:00,
2013-01-16 21:57:00,30.4,28.4,30.15,WSW,245,0.0,5.0,92,0.00,,,0.04,Wunderground v.1.15,2013-01-17 02:57:00,
2013-01-16 21:58:00,30.4,28.4,30.16,WSW,245,0.0,5.0,92,0.00,,,0.04,Wunderground v.1.15,2013-01-17 02:58:00,
2013-01-16 22:01:00,30.4,28.4,30.15,WSW,245,1.0,1.0,92,0.00,,,0.04,Wunderground v.1.15,2013-01-17 03:01:00,
2013-01-16 22:02:00,30.4,28.4,30.15,WSW,245,0.0,1.0,92,0.00,,,0.04,Wunderground v.1.15,2013-01-17 03:02:00,
2013-01-16 22:04:00,30.4,28.4,30.16,WSW,245,0.0,1.0,92,0.00,,,0.04,Wunderground v.1.15,2013-01-17 03:04:00,
2013-01-16 22:06:00,30.4,28.4,30.15,WSW,245,0.0,2.0,92,0.00,,,0.04,Wunderground v.1.15,2013-01-17 03:06:00,
2013-01-16 22:07:00,30.4,28.4,30.15,WSW,245,0.0,2.0,92,0.00,,,0.04,Wunderground v.1.15,2013-01-17 03:07:00,
2013-01-16 22:09:00,30.4,28.4,30.15,WSW,245,0.0,2.0,92,0.00,,,0.04,Wunderground v.1.15,2013-01-17 03:09:00,
2013-01-16 22:12:00,30.4,28.4,30.16,WSW,245,0.0,0.0,92,0.00,,,0.04,Wunderground v.1.15,2013-01-17 03:12:00,
2013-01-16 22:14:00,30.3,28.3,30.16,WSW,245,0.0,0.0,92,0.00,,,0.04,Wunderground v.1.15,2013-01-17 03:14:00,
2013-01-16 22:17:00,30.3,28.3,30.16,WSW,245,0.0,0.0,92,0.00,,,0.04,Wunderground v.1.15,2013-01-17 03:17:00,
2013-01-16 22:19:00,30.3,28.3,30.16,WSW,245,2.0,4.0,92,0.00,,,0.04,Wunderground v.1.15,2013-01-17 03:19:00,
2013-01-16 22:22:00,30.3,28.3,30.16,WSW,245,0.0,2.0,92,0.00,,,0.04,Wunderground v.1.15,2013-01-17 03:22:00,
2013-01-16 22:23:00,30.3,28.3,30.16,WSW,245,1.0,2.0,92,0.00,,,0.04,Wunderground v.1.15,2013-01-17 03:23:00,
2013-01-16 22:25:00,30.3,28.3,30.16,WSW,245,0.0,3.0,92,0.00,,,0.04,Wunderground v.1.15,2013-01-17 03:25:00,
2013-01-16 22:27:00,30.3,28.3,30.16,WSW,245,1.0,3.0,92,0.00,,,0.04,Wunderground v.1.15,2013-01-17 03:27:00,
2013-01-16 22:28:00,30.3,28.3,30.16,WSW,245,2.0,3.0,92,0.00,,,0.04,Wunderground v.1.15,2013-01-17 03:28:00,
2013-01-16 22:29:00,30.3,28.3,30.17,WSW,245,3.0,3.0,92,0.00,,,0.04,Wunderground v.1.15,2013-01-17 03:29:00,
2013-01-16 22:32:00,30.3,28.3,30.17,WSW,245,1.0,3.0,92,0.00,,,0.04,Wunderground v.1.15,2013-01-17 03:32:00,
2013-01-16 22:33:00,30.3,28.3,30.17,WSW,245,3.0,3.0,92,0.00,,,0.04,Wunderground v.1.15,2013-01-17 03:33:00,
2013-01-16 22:35:00,30.3,28.3,30.17,WSW,245,2.0,3.0,92,0.00,,,0.04,Wunderground v.1.15,2013-01-17 03:35:00,
2013-01-16 22:37:00,30.3,28.3,30.16,WSW,245,1.0,3.0,92,0.00,,,0.04,Wunderground v.1.15,2013-01-17 03:37:00,
2013-01-16 22:38:00,30.2,28.2,30.16,WSW,245,2.0,3.0,92,0.00,,,0.04,Wunderground v.1.15,2013-01-17 03:38:00,
2013-01-16 22:40:00,30.2,28.2,30.16,WSW,245,1.0,3.0,92,0.00,,,0.04,Wunderground v.1.15,2013-01-17 03:40:00,
2013-01-16 22:42:00,30.2,28.2,30.16,WSW,245,1.0,2.0,92,0.00,,,0.04,Wunderground v.1.15,2013-01-17 03:42:00,
2013-01-16 22:43:00,30.2,28.2,30.16,WSW,245,2.0,3.0,92,0.00,,,0.04,Wunderground v.1.15,2013-01-17 03:43:00,
2013-01-16 22:45:00,30.2,28.2,30.16,WSW,245,0.0,3.0,92,0.00,,,0.04,Wunderground v.1.15,2013-01-17 03:45:00,
2013-01-16 22:47:00,30.2,28.2,30.15,WSW,245,0.0,3.0,92,0.00,,,0.04,Wunderground v.1.15,2013-01-17 03:47:00,
2013-01-16 22:48:00,30.2,28.2,30.16,WSW,245,0.0,3.0,92,0.00,,,0.04,Wunderground v.1.15,2013-01-17 03:48:00,
2013-01-16 22:50:00,30.2,28.2,30.16,WSW,245,1.0,2.0,92,0.00,,,0.04,Wunderground v.1.15,2013-01-17 03:50:00,
2013-01-16 22:52:00,30.1,28.1,30.17,WSW,245,2.0,3.0,92,0.00,,,0.04,Wunderground v.1.15,2013-01-17 03:52:00,
2013-01-16 22:53:00,30.2,28.2,30.17,WSW,245,0.0,3.0,92,0.00,,,0.04,Wunderground v.1.15,2013-01-17 03:53:00,
2013-01-16 22:54:00,30.1,28.1,30.17,WSW,245,0.0,3.0,92,0.00,,,0.04,Wunderground v.1.15,2013-01-17 03:54:00,
2013-01-16 22:55:00,30.1,28.1,30.17,WSW,245,2.0,3.0,92,0.00,,,0.04,Wunderground v.1.15,2013-01-17 03:55:00,
2013-01-16 22:57:00,30.1,28.1,30.17,WSW,245,1.0,3.0,92,0.00,,,0.04,Wunderground v.1.15,2013-01-17 03:57:00,
2013-01-16 22:58:00,30.1,28.1,30.17,WSW,245,2.0,3.0,92,0.00,,,0.04,Wunderground v.1.15,2013-01-17 03:58:00,
2013-01-16 22:59:00,30.1,28.1,30.17,WSW,245,2.0,3.0,92,0.00,,,0.04,Wunderground v.1.15,2013-01-17 03:59:00,
2013-01-16 23:00:00,30.1,28.1,30.17,WSW,245,1.0,2.0,92,0.00,,,0.04,Wunderground v.1.15,2013-01-17 04:00:00,
2013-01-16 23:02:00,30.1,28.1,30.17,WSW,245,0.0,2.0,92,0.00,,,0.04,Wunderground v.1.15,2013-01-17 04:02:00,
2013-01-16 23:03:00,30.1,28.1,30.17,WSW,245,0.0,2.0,92,0.00,,,0.04,Wunderground v.1.15,2013-01-17 04:03:00,
2013-01-16 23:04:00,30.1,28.1,30.17,WSW,245,0.0,2.0,92,0.00,,,0.04,Wunderground v.1.15,2013-01-17 04:04:00,
2013-01-16 23:05:00,30.1,28.1,30.17,WSW,245,0.0,2.0,92,0.00,,,0.04,Wunderground v.1.15,2013-01-17 04:05:00,
2013-01-16 23:08:00,30.1,28.1,30.16,WSW,245,0.0,2.0,92,0.00,,,0.04,Wunderground v.1.15,2013-01-17 04:08:00,
2013-01-16 23:09:00,30.1,28.1,30.16,WSW,245,0.0,2.0,92,0.00,,,0.04,Wunderground v.1.15,2013-01-17 04:09:00,
2013-01-16 23:11:00,30.1,28.1,30.16,WSW,245,0.0,0.0,92,0.00,,,0.04,Wunderground v.1.15,2013-01-17 04:11:00,
2013-01-16 23:13:00,30.1,28.1,30.16,WSW,245,0.0,0.0,92,0.00,,,0.04,Wunderground v.1.15,2013-01-17 04:13:00,
2013-01-16 23:14:00,30.1,28.1,30.16,WSW,245,0.0,0.0,92,0.00,,,0.04,Wunderground v.1.15,2013-01-17 04:14:00,
2013-01-16 23:16:00,30.1,28.1,30.16,WSW,245,0.0,0.0,92,0.00,,,0.04,Wunderground v.1.15,2013-01-17 04:16:00,
2013-01-16 23:18:00,30.0,28.0,30.16,WSW,245,0.0,2.0,92,0.00,,,0.04,Wunderground v.1.15,2013-01-17 04:18:00,
2013-01-16 23:19:00,30.0,28.0,30.16,WSW,245,0.0,2.0,92,0.00,,,0.04,Wunderground v.1.15,2013-01-17 04:19:00,
2013-01-16 23:21:00,30.0,28.0,30.16,WSW,245,0.0,0.0,92,0.00,,,0.04,Wunderground v.1.15,2013-01-17 04:21:00,
2013-01-16 23:23:00,30.0,28.0,30.17,WSW,245,0.0,0.0,92,0.00,,,0.04,Wunderground v.1.15,2013-01-17 04:23:00,
2013-01-16 23:24:00,30.0,28.0,30.16,WSW,245,0.0,0.0,92,0.00,,,0.04,Wunderground v.1.15,2013-01-17 04:24:00,
2013-01-16 23:26:00,30.0,28.0,30.16,WSW,245,0.0,0.0,92,0.00,,,0.04,Wunderground v.1.15,2013-01-17 04:26:00,
2013-01-16 23:28:00,30.0,28.0,30.17,WSW,245,0.0,0.0,92,0.00,,,0.04,Wunderground v.1.15,2013-01-17 04:28:00,
2013-01-16 23:29:00,29.9,27.9,30.16,WSW,245,0.0,0.0,92,0.00,,,0.04,Wunderground v.1.15,2013-01-17 04:29:00,
2013-01-16 23:31:00,29.9,27.9,30.16,WSW,245,2.0,3.0,92,0.00,,,0.04,Wunderground v.1.15,2013-01-17 04:31:00,
2013-01-16 23:33:00,29.9,27.9,30.16,WSW,245,0.0,3.0,92,0.00,,,0.04,Wunderground v.1.15,2013-01-17 04:33:00,
2013-01-16 23:34:00,29.9,27.9,30.17,WSW,245,0.0,3.0,92,0.00,,,0.04,Wunderground v.1.15,2013-01-17 04:34:00,
2013-01-16 23:36:00,29.8,27.8,30.17,WSW,245,0.0,3.0,92,0.00,,,0.04,Wunderground v.1.15,2013-01-17 04:36:00,
2013-01-16 23:38:00,29.8,27.8,30.17,WSW,245,1.0,3.0,92,0.00,,,0.04,Wunderground v.1.15,2013-01-17 04:38:00,
2013-01-16 23:39:00,29.8,27.8,30.17,WSW,245,0.0,3.0,92,0.00,,,0.04,Wunderground v.1.15,2013-01-17 04:39:00,
2013-01-16 23:41:00,29.8,27.8,30.17,WSW,245,0.0,1.0,92,0.00,,,0.04,Wunderground v.1.15,2013-01-17 04:41:00,
2013-01-16 23:43:00,29.8,27.8,30.17,WSW,245,0.0,1.0,92,0.00,,,0.04,Wunderground v.1.15,2013-01-17 04:43:00,
2013-01-16 23:44:00,29.8,27.8,30.17,WSW,245,0.0,1.0,92,0.00,,,0.04,Wunderground v.1.15,2013-01-17 04:44:00,
2013-01-16 23:47:00,29.7,27.7,30.17,WSW,245,0.0,1.0,92,0.00,,,0.04,Wunderground v.1.15,2013-01-17 04:47:00,
2013-01-16 23:48:00,29.7,27.7,30.17,WSW,245,0.0,1.0,92,0.00,,,0.04,Wunderground v.1.15,2013-01-17 04:48:00,
2013-01-16 23:49:00,29.7,27.7,30.17,WSW,245,0.0,1.0,92,0.00,,,0.04,Wunderground v.1.15,2013-01-17 04:49:00,
2013-01-16 23:52:00,29.7,27.7,30.16,WSW,245,0.0,0.0,92,0.00,,,0.04,Wunderground v.1.15,2013-01-17 04:52:00,
2013-01-16 23:53:00,29.7,27.7,30.16,WSW,245,0.0,0.0,92,0.00,,,0.04,Wunderground v.1.15,2013-01-17 04:53:00,
2013-01-16 23:54:00,29.7,27.7,30.16,WSW,245,0.0,0.0,92,0.00,,,0.04,Wunderground v.1.15,2013-01-17 04:54:00,
2013-01-16 23:55:00,29.7,27.7,30.17,WSW,245,1.0,1.0,92,0.00,,,0.04,Wunderground v.1.15,2013-01-17 04:55:00,
2013-01-16 23:57:00,29.7,27.7,30.17,WSW,245,2.0,2.0,92,0.00,,,0.04,Wunderground v.1.15,2013-01-17 04:57:00,
2013-01-16 23:59:00,29.7,27.7,30.17,WSW,245,0.0,2.0,92,0.00,,,0.04,Wunderground v.1.15,2013-01-17 04:59:00,